Sigfox identifier Datetime Temperature Humidity SNR
003C4887 2019-04-12 12:39:55 21 17 21
003C4887 2019-04-12 12:07:39 20.9 17 21
003C4887 2019-04-12 11:35:24 21 17 21.1
003C4887 2019-04-12 11:03:08 21 18 21
003C4887 2019-04-12 10:30:54 20.9 18 21.1
003C4887 2019-04-12 09:58:35 20.9 18 21.1
003C4887 2019-04-12 09:26:18 20.8 17 21.2
003C4887 2019-04-12 08:54:02 20.7 17 21.2
003C4887 2019-04-12 08:21:47 20.7 18 21.2
003C4887 2019-04-12 07:49:31 20.8 18 21.2
003C4887 2019-04-12 07:17:15 20.8 18 21.2
003C4887 2019-04-12 06:45:00 20.8 18 21.3
003C4887 2019-04-12 06:12:45 20.8 18 21.4
003C4887 2019-04-12 05:40:30 20.8 18 21.3
003C4887 2019-04-12 05:08:14 20.8 18 21.4
003C4887 2019-04-12 04:36:01 20.9 18 21.3
003C4887 2019-04-12 04:03:45 20.9 18 21.4
003C4887 2019-04-12 03:31:29 20.9 18 21.4
003C4887 2019-04-12 02:59:12 20.9 18 19.9
003C4887 2019-04-12 02:26:56 21 18 19.9
003C4887 2019-04-12 01:54:41 21 18 19.8
003C4887 2019-04-12 01:22:24 21 18 19.8
003C4887 2019-04-12 00:50:07 21.1 18 17.6
003C4887 2019-04-12 00:17:50 21.2 18 17.4
003C4887 2019-04-11 23:45:34 21.3 18 17.4
003C4887 2019-04-11 23:13:19 21.3 18 17.9
003C4887 2019-04-11 22:41:05 21.3 18 17.8
003C4887 2019-04-11 22:08:51 21.3 18 17.8
003C4887 2019-04-11 21:36:35 21.3 18 17.9
003C4887 2019-04-11 21:04:21 21.3 18 17.7
003C4887 2019-04-11 20:32:04 21.3 17 17.6
003C4887 2019-04-11 19:59:49 21.2 17 17.2
003C4887 2019-04-11 19:27:03 21.2 17 17
003C4887 2019-04-11 18:54:49 21.1 17 16.9
003C4887 2019-04-11 18:22:35 21.2 17 16.8
003C4887 2019-04-11 17:50:19 21.2 17 16.6
003C4887 2019-04-11 17:18:02 21.2 17 16.2
003C4887 2019-04-11 16:45:45 21.2 17 19.1
003C4887 2019-04-11 16:13:29 21.2 18 19
003C4887 2019-04-11 15:41:14 21.1 18 19.1
003C4887 2019-04-11 15:08:57 21 18 19
003C4887 2019-04-11 14:36:40 20.9 18 19
003C4887 2019-04-11 14:04:22 20.9 18 19
003C4887 2019-04-11 13:32:07 20.8 18 20.7
003C4887 2019-04-11 12:59:50 20.8 17 20.8
003C4887 2019-04-11 12:27:34 20.8 17 20.8
003C4887 2019-04-11 11:55:20 20.8 18 20.9
003C4887 2019-04-11 11:23:08 20.8 18 20.9
003C4887 2019-04-11 10:50:55 20.7 18 21
003C4887 2019-04-11 10:18:36 20.7 18 20.6
003C4887 2019-04-11 09:46:21 20.6 18 20.7
003C4887 2019-04-11 09:14:05 20.6 18 20.7
003C4887 2019-04-11 08:41:49 20.6 18 20.8
003C4887 2019-04-11 08:09:36 20.6 18 20.9
003C4887 2019-04-11 07:37:22 20.6 18 21
003C4887 2019-04-11 07:05:08 20.6 18 20.9
003C4887 2019-04-11 06:32:53 20.6 18 21
003C4887 2019-04-11 06:00:39 20.7 18 21
003C4887 2019-04-11 05:28:21 20.7 18 21
003C4887 2019-04-11 04:56:06 20.7 18 21
003C4887 2019-04-11 04:23:51 20.7 19 21
003C4887 2019-04-11 03:51:36 20.7 19 21
003C4887 2019-04-11 03:19:20 20.7 19 19.6
003C4887 2019-04-11 02:47:05 20.7 19 19.6
003C4887 2019-04-11 02:14:50 20.8 19 19.6
003C4887 2019-04-11 01:42:34 20.8 19 19.6
003C4887 2019-04-11 01:10:20 20.8 19 19.8
003C4887 2019-04-11 00:38:04 20.9 19 19.8
003C4887 2019-04-11 00:05:49 20.8 19 17.6
003C4887 2019-04-10 23:33:33 20.8 19 17.9
003C4887 2019-04-10 23:01:18 20.9 19 17.8
003C4887 2019-04-10 22:29:02 20.8 19 18.2
003C4887 2019-04-10 21:56:46 20.8 19 18.2
003C4887 2019-04-10 21:24:31 20.8 19 18.2
003C4887 2019-04-10 20:52:15 20.8 19 18.2
003C4887 2019-04-10 20:19:58 20.8 19 18.2
003C4887 2019-04-10 19:47:44 20.7 19 18
003C4887 2019-04-10 19:15:27 20.7 19 18.1
003C4887 2019-04-10 18:43:12 20.6 19 18.1
003C4887 2019-04-10 18:10:56 20.7 19 18
003C4887 2019-04-10 17:38:38 20.7 19 18
003C4887 2019-04-10 17:06:24 20.7 19 17.9
003C4887 2019-04-10 16:33:32 20.7 19 18.1
003C4887 2019-04-10 16:01:15 20.7 19 18.7
003C4887 2019-04-10 15:28:58 20.8 20 18.5
003C4887 2019-04-10 14:56:42 20.8 20 18.6
003C4887 2019-04-10 14:24:25 20.8 20 18.4
003C4887 2019-04-10 13:52:08 20.8 20 18.5
003C4887 2019-04-10 13:19:52 20.8 21 18.7
003C4887 2019-04-10 12:47:38 20.7 21 18.9
003C4887 2019-04-10 12:15:23 20.7 21 20.5
003C4887 2019-04-10 11:43:08 20.7 21 20.6
003C4887 2019-04-10 11:10:53 20.6 21 20.5
003C4887 2019-04-10 10:38:36 20.6 21 20.6
003C4887 2019-04-10 10:06:21 20.6 22 20.9
003C4887 2019-04-10 09:34:05 20.6 22 20.6
003C4887 2019-04-10 09:01:49 20.5 22 20.5
003C4887 2019-04-10 08:29:33 20.4 23 20.6
003C4887 2019-04-10 07:57:17 20.5 23 20.8
003C4887 2019-04-10 07:25:02 20.5 23 20.9
003C4887 2019-04-10 06:52:46 20.5 24 20.9
003C4887 2019-04-10 06:20:30 20.5 24 20.8
003C4887 2019-04-10 05:48:14 20.5 24 20.9
003C4887 2019-04-10 05:15:57 20.4 24 21
003C4887 2019-04-10 04:43:43 20.5 24 21
003C4887 2019-04-10 04:11:26 20.5 24 21.1
003C4887 2019-04-10 03:39:12 20.5 24 21.3
003C4887 2019-04-10 03:06:55 20.5 25 21.1
003C4887 2019-04-10 02:34:37 20.6 25 21
003C4887 2019-04-10 02:02:22 20.6 25 21
003C4887 2019-04-10 01:30:05 20.6 26 20.9
003C4887 2019-04-10 00:57:49 20.6 26 21.1
003C4887 2019-04-10 00:25:31 20.6 26 21
003C4887 2019-04-09 23:53:14 20.6 26 22.1
003C4887 2019-04-09 23:20:57 20.6 26 22.1
003C4887 2019-04-09 22:48:39 20.6 27 21
003C4887 2019-04-09 22:16:23 20.6 27 21
003C4887 2019-04-09 21:44:06 20.6 27 21
003C4887 2019-04-09 21:11:49 20.6 27 21
003C4887 2019-04-09 20:39:33 20.6 27 20.7
003C4887 2019-04-09 20:07:18 20.6 27 21
003C4887 2019-04-09 19:35:01 20.6 27 21.1
003C4887 2019-04-09 19:02:44 20.6 27 21.1
003C4887 2019-04-09 18:30:28 20.7 27 20.9
003C4887 2019-04-09 17:58:11 20.7 27 20.8
003C4887 2019-04-09 17:25:54 20.7 27 21
003C4887 2019-04-09 16:53:36 20.7 27 21.3
003C4887 2019-04-09 16:21:17 20.8 27 21.2
003C4887 2019-04-09 15:49:00 20.8 27 21.2
003C4887 2019-04-09 15:16:43 20.8 26 21.4
003C4887 2019-04-09 14:44:26 20.8 26 21.5
003C4887 2019-04-09 14:12:09 20.8 26 21.6
003C4887 2019-04-09 13:39:14 20.8 26 21.7
003C4887 2019-04-09 13:06:56 20.8 26 22.7
003C4887 2019-04-09 12:34:39 20.9 26 22.8
003C4887 2019-04-09 12:02:23 20.9 26 22.8
003C4887 2019-04-09 11:30:07 20.8 26 22.9
003C4887 2019-04-09 10:57:50 20.7 26 22
003C4887 2019-04-09 10:25:33 20.7 26 22.9
003C4887 2019-04-09 09:53:17 20.7 26 22.9
003C4887 2019-04-09 09:20:58 20.7 26 22.9
003C4887 2019-04-09 08:48:41 20.6 25 23
003C4887 2019-04-09 08:16:23 20.6 25 23
003C4887 2019-04-09 07:44:07 20.6 25 23
003C4887 2019-04-09 07:11:49 20.6 25 23
003C4887 2019-04-09 06:39:34 20.6 25 23
003C4887 2019-04-09 06:07:15 20.6 25 22.9
003C4887 2019-04-09 05:34:57 20.7 25 23
003C4887 2019-04-09 05:02:39 20.7 25 22.9
003C4887 2019-04-09 04:30:21 20.7 25 22.9
003C4887 2019-04-09 03:58:03 20.7 25 22.8
003C4887 2019-04-09 03:25:46 20.7 25 22.8
003C4887 2019-04-09 02:21:10 20.7 25 22.6
003C4887 2019-04-09 01:48:54 20.7 25 22.4
003C4887 2019-04-09 01:16:38 20.8 26 22.2
003C4887 2019-04-09 00:44:23 20.8 26 22.2
003C4887 2019-04-09 00:12:08 20.8 26 22
003C4887 2019-04-08 23:39:53 20.8 26 20.8
003C4887 2019-04-08 23:07:38 20.8 26 20.7
003C4887 2019-04-08 22:35:21 20.8 26 20.5
003C4887 2019-04-08 22:03:06 20.8 26 20.2
003C4887 2019-04-08 21:30:52 20.8 26 20.3
003C4887 2019-04-08 20:58:38 20.9 26 18.4
003C4887 2019-04-08 20:26:24 20.8 26 18.6
003C4887 2019-04-08 19:54:11 20.8 26 18.7
003C4887 2019-04-08 19:21:57 20.8 26 18.5
003C4887 2019-04-08 18:49:41 20.8 26 18.2
003C4887 2019-04-08 18:17:25 20.8 26 18.7
003C4887 2019-04-08 17:45:10 20.8 26 18.7
003C4887 2019-04-08 17:12:56 20.9 26 19.2
003C4887 2019-04-08 16:40:39 20.9 26 19.5
003C4887 2019-04-08 16:08:23 20.9 26 19.5
003C4887 2019-04-08 15:36:07 20.9 26 19.9
003C4887 2019-04-08 15:03:50 20.9 26 19.7
003C4887 2019-04-08 14:31:34 20.9 26 19.8
003C4887 2019-04-08 13:59:17 21 26 19.8
003C4887 2019-04-08 13:27:00 20.9 26 20.1
003C4887 2019-04-08 12:54:44 20.8 26 21.5
003C4887 2019-04-08 12:22:28 20.7 25 21.7
003C4887 2019-04-08 11:50:12 20.6 25 22
003C4887 2019-04-08 11:17:55 20.6 25 22.1
003C4887 2019-04-08 10:45:06 20.5 25 22.3
003C4887 2019-04-08 10:12:50 20.5 24 22.3
003C4887 2019-04-08 09:40:33 20.4 24 22.5
003C4887 2019-04-08 09:08:16 20.4 24 22.7
003C4887 2019-04-08 08:35:59 20.3 24 22.7
003C4887 2019-04-08 08:03:42 20.2 23 22.7
003C4887 2019-04-08 07:31:25 20.2 23 23.4
003C4887 2019-04-08 06:59:08 20.3 23 23.4
003C4887 2019-04-08 06:26:50 20.3 23 23.5
003C4887 2019-04-08 05:54:35 20.4 23 24.2
003C4887 2019-04-08 05:22:19 20.3 23 24.1
003C4887 2019-04-08 04:50:01 20.4 23 24
003C4887 2019-04-08 04:17:46 20.4 23 23.9
003C4887 2019-04-08 03:45:29 20.4 23 24.4
003C4887 2019-04-08 03:13:12 20.4 23 24.6
003C4887 2019-04-08 02:40:57 20.5 23 24.5
003C4887 2019-04-08 02:08:41 20.5 23 24.5
003C4887 2019-04-08 01:36:25 20.5 23 24.5
003C4887 2019-04-08 01:04:08 20.5 22 24.5
003C4887 2019-04-08 00:31:49 20.6 22 24.5
003C4887 2019-04-07 23:59:30 20.6 22 23.9
003C4887 2019-04-07 23:27:12 20.6 22 23.8
003C4887 2019-04-07 22:54:55 20.6 22 23.7
003C4887 2019-04-07 22:22:38 20.7 22 23.6
003C4887 2019-04-07 21:50:20 20.7 22 23.7
003C4887 2019-04-07 21:18:02 20.8 22 23.7
003C4887 2019-04-07 20:45:46 20.9 22 23.7
003C4887 2019-04-07 20:13:29 20.9 22 23.6
003C4887 2019-04-07 19:41:12 20.9 22 23.5
003C4887 2019-04-07 19:08:55 20.9 22 23.5
003C4887 2019-04-07 18:36:38 20.9 22 23.6
003C4887 2019-04-07 18:04:21 20.9 22 22.8
003C4887 2019-04-07 17:32:06 20.9 22 22.8
003C4887 2019-04-07 16:59:49 20.8 22 22.8
003C4887 2019-04-07 16:27:34 20.8 22 21.9
003C4887 2019-04-07 15:55:19 20.7 22 22.1
003C4887 2019-04-07 15:23:03 20.6 22 22
003C4887 2019-04-07 14:50:46 20.5 22 22.1
003C4887 2019-04-07 14:18:31 20.5 21 21
003C4887 2019-04-07 13:46:14 20.4 21 20.8
003C4887 2019-04-07 13:13:55 20.4 21 20.9
003C4887 2019-04-07 12:41:39 20.4 21 20.7
003C4887 2019-04-07 12:09:21 20.4 21 20.8
003C4887 2019-04-07 11:37:04 20.4 21 20.7
003C4887 2019-04-07 11:04:47 20.4 21 20.4
003C4887 2019-04-07 10:32:30 20.4 21 20.4
003C4887 2019-04-07 10:00:13 20.4 21 20.4
003C4887 2019-04-07 09:27:55 20.4 21 20.6
003C4887 2019-04-07 08:55:39 20.4 21 20.7
003C4887 2019-04-07 08:23:20 20.7 21 20.6
003C4887 2019-04-07 08:22:05 20.4 21 20.3
003C4887 2019-04-07 07:49:47 20.4 21 20.7
003C4887 2019-04-07 07:17:31 20.5 21 20.8
003C4887 2019-04-07 06:45:12 20.5 21 20.8
003C4887 2019-04-07 06:12:54 20.5 21 20.8
003C4887 2019-04-07 05:40:37 20.6 21 21
003C4887 2019-04-07 05:08:19 20.6 21 21
003C4887 2019-04-07 04:36:03 20.7 21 20.8
003C4887 2019-04-07 04:03:45 20.7 21 20.7
003C4887 2019-04-07 03:31:28 20.7 21 20.4
003C4887 2019-04-07 02:59:10 20.7 21 20.6
003C4887 2019-04-07 02:26:53 20.8 21 20.4
003C4887 2019-04-07 01:54:37 20.9 21 20.4
003C4887 2019-04-07 01:22:19 20.9 21 20.3
003C4887 2019-04-07 00:50:01 21 21 20.2
003C4887 2019-04-07 00:17:45 21 21 20.5
003C4887 2019-04-06 23:45:27 21 21 20.2
003C4887 2019-04-06 23:13:10 21.1 21 20.5
003C4887 2019-04-06 22:40:51 21.1 21 20.5
003C4887 2019-04-06 22:08:34 21.2 21 20.5
003C4887 2019-04-06 21:36:15 21.2 21 20.6
003C4887 2019-04-06 21:03:57 21.2 21 20.5
003C4887 2019-04-06 20:31:40 21.3 21 20.3
003C4887 2019-04-06 19:59:23 21.3 21 20.5
003C4887 2019-04-06 19:27:06 21.3 21 20.6
003C4887 2019-04-06 18:54:49 21.2 21 20.3
003C4887 2019-04-06 18:22:32 21.2 21 20.1
003C4887 2019-04-06 17:50:14 21.2 21 20.3
003C4887 2019-04-06 17:17:56 21.1 21 20.1
003C4887 2019-04-06 16:45:39 21 21 20.1
003C4887 2019-04-06 16:13:20 20.9 21 19.9
003C4887 2019-04-06 15:41:04 20.7 21 19.9
003C4887 2019-04-06 15:08:47 20.6 21 20.1
003C4887 2019-04-06 14:36:29 20.5 21 20.4
003C4887 2019-04-06 14:04:12 20.5 21 20.6
003C4887 2019-04-06 13:31:55 20.5 20 20.4
003C4887 2019-04-06 12:59:37 20.5 21 20.5
003C4887 2019-04-06 12:27:19 20.5 20 20.4
003C4887 2019-04-06 11:55:03 20.5 20 20.4
003C4887 2019-04-06 11:22:45 20.5 20 20.3
003C4887 2019-04-06 10:50:30 20.5 20 20.3
003C4887 2019-04-06 10:18:10 20.5 20 20.5
003C4887 2019-04-06 09:45:53 20.5 20 20.4
003C4887 2019-04-06 09:13:36 20.5 20 20.5
003C4887 2019-04-06 08:41:18 20.5 20 20.5
003C4887 2019-04-06 08:09:00 20.5 20 20.6
003C4887 2019-04-06 07:36:44 20.6 20 20.5
003C4887 2019-04-06 07:04:27 20.6 20 20.7
003C4887 2019-04-06 06:32:09 20.7 20 20.6
003C4887 2019-04-06 05:59:53 20.7 20 20.3
003C4887 2019-04-06 05:27:03 20.7 20 20.7
003C4887 2019-04-06 04:54:45 20.8 20 20.7
003C4887 2019-04-06 04:22:28 20.8 20 20.8
003C4887 2019-04-06 03:50:11 20.9 20 20.9
003C4887 2019-04-06 03:17:54 20.9 20 21
003C4887 2019-04-06 02:45:38 21 20 21.2
003C4887 2019-04-06 02:13:22 21.1 20 21.2
003C4887 2019-04-06 01:41:06 21.1 19 21.2
003C4887 2019-04-06 01:08:49 21.2 19 21
003C4887 2019-04-06 00:36:31 21.3 19 21.1
003C4887 2019-04-06 00:04:15 21.4 19 21.2
003C4887 2019-04-05 23:31:59 21.5 19 21.4
003C4887 2019-04-05 22:59:43 21.6 19 21.3
003C4887 2019-04-05 22:27:25 21.6 19 21.4
003C4887 2019-04-05 21:55:08 21.7 19 21.4
003C4887 2019-04-05 21:22:52 21.8 19 21.3
003C4887 2019-04-05 20:50:37 21.9 19 21.2
003C4887 2019-04-05 20:18:22 21.9 19 21.2
003C4887 2019-04-05 19:46:05 21.9 19 21.1
003C4887 2019-04-05 19:13:49 21.9 19 20.9
003C4887 2019-04-05 18:41:31 21.7 19 20.9
003C4887 2019-04-05 18:09:15 21.7 19 20.6
003C4887 2019-04-05 17:36:59 21.7 19 20.4
003C4887 2019-04-05 17:04:42 21.7 20 20.6
003C4887 2019-04-05 16:32:26 21.7 20 20.8
003C4887 2019-04-05 16:00:13 21.6 21 20.6
003C4887 2019-04-05 15:27:55 21.5 21 20.3
003C4887 2019-04-05 14:55:39 21.4 21 20.4
003C4887 2019-04-05 14:23:23 21.3 21 20.3
003C4887 2019-04-05 13:51:06 21.2 21 20.2
003C4887 2019-04-05 13:18:51 21.2 21 19.9
003C4887 2019-04-05 12:46:35 21.2 21 19.7
003C4887 2019-04-05 12:14:20 21.2 21 19.5
003C4887 2019-04-05 11:42:02 21.2 22 19.7
003C4887 2019-04-05 11:09:45 21.2 22 19.6
003C4887 2019-04-05 10:37:30 21.1 21 19.3
003C4887 2019-04-05 10:05:15 21 20 19.2
003C4887 2019-04-05 09:32:58 21 20 19.4
003C4887 2019-04-05 09:00:43 20.9 19 19.6
003C4887 2019-04-05 08:28:28 20.9 19 19.6
003C4887 2019-04-05 07:56:12 21 19 19.4
003C4887 2019-04-05 07:23:56 21 19 19.3
003C4887 2019-04-05 06:51:40 21 19 20.9
003C4887 2019-04-05 06:19:25 21 19 21.1
003C4887 2019-04-05 05:47:06 21.1 19 21.2
003C4887 2019-04-05 05:14:50 21.1 19 22.3
003C4887 2019-04-05 04:42:33 21.1 19 23.2
003C4887 2019-04-05 04:10:16 21.2 19 23.3
003C4887 2019-04-05 03:37:59 21.1 19 23.4
003C4887 2019-04-05 03:05:41 21.2 19 24
003C4887 2019-04-05 02:32:51 21.2 19 24
003C4887 2019-04-05 02:00:34 21.3 19 24
003C4887 2019-04-05 01:28:16 21.3 19 23.9
003C4887 2019-04-05 00:55:57 21.3 19 24.5
003C4887 2019-04-05 00:23:38 21.4 19 24.5
003C4887 2019-04-04 23:51:22 21.4 19 24.5
003C4887 2019-04-04 23:19:05 21.4 19 25
003C4887 2019-04-04 22:46:49 21.4 19 25
003C4887 2019-04-04 22:14:33 21.5 18 25
003C4887 2019-04-04 21:42:16 21.5 18 25
003C4887 2019-04-04 21:10:00 21.5 18 25
003C4887 2019-04-04 20:37:43 21.5 18 25
003C4887 2019-04-04 20:05:28 21.5 18 24.9
003C4887 2019-04-04 19:33:13 21.5 18 24.8
003C4887 2019-04-04 19:00:56 21.5 18 24.8
003C4887 2019-04-04 18:28:40 21.5 18 24.9
003C4887 2019-04-04 17:56:25 21.5 18 24.3
003C4887 2019-04-04 17:24:08 21.5 18 24.2
003C4887 2019-04-04 16:51:51 21.5 19 24.2
003C4887 2019-04-04 16:19:35 21.5 19 23.7
003C4887 2019-04-04 15:47:19 21.4 19 22.9
003C4887 2019-04-04 15:15:03 21.3 20 22.9
003C4887 2019-04-04 14:42:47 21.2 20 22.6
003C4887 2019-04-04 14:10:32 21.2 20 21.6
003C4887 2019-04-04 13:38:17 21.1 20 21.6
003C4887 2019-04-04 13:06:02 21.1 20 21.6
003C4887 2019-04-04 12:33:48 21 20 21.6
003C4887 2019-04-04 12:01:33 21 20 21.8
003C4887 2019-04-04 11:29:19 21 20 20.6
003C4887 2019-04-04 10:57:04 20.9 20 20.6
003C4887 2019-04-04 10:24:49 21 20 20.9
003C4887 2019-04-04 09:52:33 20.9 20 19.3
003C4887 2019-04-04 09:20:17 20.9 20 19.5
003C4887 2019-04-04 08:48:01 20.9 20 19.6
003C4887 2019-04-04 08:15:44 20.9 20 19.6
003C4887 2019-04-04 07:43:29 21 20 19.8
003C4887 2019-04-04 07:11:12 21 20 19.8
003C4887 2019-04-04 06:38:56 21 20 19.8
003C4887 2019-04-04 06:06:40 21 20 20.1
003C4887 2019-04-04 05:34:25 21 20 20.1
003C4887 2019-04-04 05:02:10 21.1 20 19.9
003C4887 2019-04-04 04:29:55 21.1 20 20
003C4887 2019-04-04 03:57:39 21.2 20 20.1
003C4887 2019-04-04 03:25:24 21.2 20 20.3
003C4887 2019-04-04 02:53:09 21.2 20 20.3
003C4887 2019-04-04 02:20:53 21.3 19 20.2
003C4887 2019-04-04 01:48:37 21.3 19 20.3
003C4887 2019-04-04 01:16:22 21.3 19 20.5
003C4887 2019-04-04 00:44:05 21.4 19 20.7
003C4887 2019-04-04 00:11:48 21.5 19 20.6
003C4887 2019-04-03 23:38:59 21.5 19 20.5
003C4887 2019-04-03 23:06:43 21.5 19 20.3
003C4887 2019-04-03 22:34:28 21.6 19 20.4
003C4887 2019-04-03 22:02:12 21.6 19 21.7
003C4887 2019-04-03 21:29:57 21.6 19 21.5
003C4887 2019-04-03 20:57:41 21.6 19 21.6
003C4887 2019-04-03 20:25:25 21.7 19 21.6
003C4887 2019-04-03 19:53:09 21.7 19 21.4
003C4887 2019-04-03 19:20:56 21.7 19 21.4
003C4887 2019-04-03 18:48:42 21.7 19 21.4
003C4887 2019-04-03 18:16:27 21.8 19 21.5
003C4887 2019-04-03 17:44:12 21.9 19 21.5
003C4887 2019-04-03 17:11:59 21.9 20 21.3
003C4887 2019-04-03 16:39:43 21.8 20 21.4
003C4887 2019-04-03 16:07:28 21.7 21 21.4
003C4887 2019-04-03 15:35:12 21.5 21 21.3
003C4887 2019-04-03 15:02:55 21.4 21 21.2
003C4887 2019-04-03 14:30:40 21.3 21 21.1
003C4887 2019-04-03 13:58:24 21.3 21 20.9
003C4887 2019-04-03 13:26:08 21.2 21 20.8
003C4887 2019-04-03 12:53:52 21.1 20 20.7
003C4887 2019-04-03 12:21:35 21.1 20 20.5
003C4887 2019-04-03 11:49:19 21.1 21 20.3
003C4887 2019-04-03 11:17:02 21.1 21 20.4
003C4887 2019-04-03 10:44:47 21 21 20.4
003C4887 2019-04-03 10:12:32 20.9 21 20.4
003C4887 2019-04-03 09:40:17 20.8 21 20.6
003C4887 2019-04-03 09:08:01 20.8 20 20.7
003C4887 2019-04-03 08:35:46 20.7 20 19.2
003C4887 2019-04-03 08:03:32 20.7 20 19.4
003C4887 2019-04-03 07:31:18 20.8 20 19.2
003C4887 2019-04-03 06:59:03 20.8 19 19.2
003C4887 2019-04-03 06:26:49 20.8 19 19.3
003C4887 2019-04-03 05:54:36 20.8 19 19.4
003C4887 2019-04-03 05:22:21 20.8 19 19
003C4887 2019-04-03 04:50:05 20.8 19 18.8
003C4887 2019-04-03 04:17:51 20.9 19 18.7
003C4887 2019-04-03 03:45:35 20.9 19 19.2
003C4887 2019-04-03 03:13:21 20.9 19 19.2
003C4887 2019-04-03 02:41:06 20.9 19 19
003C4887 2019-04-03 02:08:50 21 19 19
003C4887 2019-04-03 01:36:34 21 19 19
003C4887 2019-04-03 01:04:17 21.1 19 19
003C4887 2019-04-03 00:32:00 21.1 19 19.2
003C4887 2019-04-02 23:59:44 21.1 19 19.2
003C4887 2019-04-02 23:27:29 21.2 19 20.8
003C4887 2019-04-02 22:55:14 21.2 19 20.8
003C4887 2019-04-02 22:22:57 21.2 18 20.9
003C4887 2019-04-02 21:50:41 21.3 18 20.8
003C4887 2019-04-02 21:18:24 21.5 18 20.8
003C4887 2019-04-02 21:17:09 21.3 18 21.1
003C4887 2019-04-02 20:44:52 21.3 18 22.1
003C4887 2019-04-02 20:12:35 21.3 18 22.1
003C4887 2019-04-02 19:40:18 21.4 18 21.9
003C4887 2019-04-02 19:08:01 21.4 18 21.8
003C4887 2019-04-02 18:35:44 21.4 18 22
003C4887 2019-04-02 18:03:28 21.4 18 22
003C4887 2019-04-02 17:31:13 21.5 18 21.9
003C4887 2019-04-02 16:58:58 21.6 19 21.9
003C4887 2019-04-02 16:26:42 21.5 20 21.9
003C4887 2019-04-02 15:54:27 21.5 21 22.9
003C4887 2019-04-02 15:22:11 21.3 22 22.9
003C4887 2019-04-02 14:49:55 21.2 22 22.7
003C4887 2019-04-02 14:17:39 21 23 22.9
003C4887 2019-04-02 13:45:23 20.9 23 22.9
003C4887 2019-04-02 13:13:06 20.8 22 23
003C4887 2019-04-02 12:40:50 20.8 22 23.2
003C4887 2019-04-02 12:08:34 20.8 22 23.3
003C4887 2019-04-02 11:36:19 20.8 22 23.3
003C4887 2019-04-02 11:04:03 20.8 21 23.3
003C4887 2019-04-02 10:31:49 20.8 21 22.6
003C4887 2019-04-02 09:59:35 20.7 21 22.7
003C4887 2019-04-02 09:27:21 20.7 21 22.7
003C4887 2019-04-02 08:55:06 20.7 20 22.6
003C4887 2019-04-02 08:22:47 20.7 20 22.7
003C4887 2019-04-02 07:50:32 20.6 20 22.6
003C4887 2019-04-02 07:18:17 20.6 19 21.6
003C4887 2019-04-02 06:46:01 20.7 19 21.4
003C4887 2019-04-02 06:13:46 20.7 19 21.6
003C4887 2019-04-02 05:41:30 20.7 19 21.5
003C4887 2019-04-02 05:09:16 20.7 19 21.3
003C4887 2019-04-02 04:37:00 20.7 19 21.3
003C4887 2019-04-02 04:04:45 20.7 19 21.2
003C4887 2019-04-02 03:32:30 20.8 19 21.2
003C4887 2019-04-02 03:00:15 20.8 18 21.3
003C4887 2019-04-02 02:28:00 20.8 18 19.9
003C4887 2019-04-02 01:55:46 20.9 18 19.8
003C4887 2019-04-02 01:23:31 20.9 18 20
003C4887 2019-04-02 00:51:17 20.9 18 19.8
003C4887 2019-04-02 00:19:03 21 18 19.8
003C4887 2019-04-01 23:46:47 21 18 19.8
003C4887 2019-04-01 23:14:32 21 18 19.9
003C4887 2019-04-01 22:42:16 21.1 18 19.5
003C4887 2019-04-01 22:09:59 21.1 17 19.6
003C4887 2019-04-01 21:37:43 21.1 17 19.5
003C4887 2019-04-01 21:05:28 21.1 17 19.4
003C4887 2019-04-01 20:33:13 21.2 17 19.1
003C4887 2019-04-01 20:00:57 21.1 17 19.3
003C4887 2019-04-01 19:28:40 21.2 17 19.7
003C4887 2019-04-01 18:56:24 21.1 17 19.6
003C4887 2019-04-01 18:23:34 21.2 17 20
003C4887 2019-04-01 17:51:19 21.2 18 20.1
003C4887 2019-04-01 17:19:02 21.2 18 20
003C4887 2019-04-01 16:46:46 21.1 18 20.3
003C4887 2019-04-01 16:14:30 21 18 20.3
003C4887 2019-04-01 15:42:11 20.9 19 20.5
003C4887 2019-04-01 15:09:55 20.7 19 20.5
003C4887 2019-04-01 14:37:38 20.6 20 20.5
003C4887 2019-04-01 14:05:23 20.6 20 20.5
003C4887 2019-04-01 13:33:07 20.5 21 20.5
003C4887 2019-04-01 13:00:51 20.5 21 21.8
003C4887 2019-04-01 12:28:34 20.5 21 21.6
003C4887 2019-04-01 11:56:16 20.6 22 21.9
003C4887 2019-04-01 11:23:59 20.5 22 21.7
003C4887 2019-04-01 10:51:42 20.5 22 21.6
003C4887 2019-04-01 10:19:23 20.5 22 21.7
003C4887 2019-04-01 09:47:06 20.5 22 21.6
003C4887 2019-04-01 09:14:49 20.4 23 21.7
003C4887 2019-04-01 08:42:32 20.4 23 21.7
003C4887 2019-04-01 08:10:13 20.4 23 21.7
003C4887 2019-04-01 07:37:56 20.4 23 21.7
003C4887 2019-04-01 07:05:39 20.4 23 21.5
003C4887 2019-04-01 06:33:22 20.4 23 21.6
003C4887 2019-04-01 06:01:05 20.4 23 21.4
003C4887 2019-04-01 05:28:48 20.4 23 21.5
003C4887 2019-04-01 04:56:31 20.4 23 21.4
003C4887 2019-04-01 04:24:13 20.4 24 21.5
003C4887 2019-04-01 03:51:57 20.4 24 21.4
003C4887 2019-04-01 03:19:40 20.5 24 22.4
003C4887 2019-04-01 02:47:22 20.5 24 22.4
003C4887 2019-04-01 02:15:04 20.5 24 22.5
003C4887 2019-04-01 01:42:46 20.5 24 22.6
003C4887 2019-04-01 01:10:29 20.5 24 22.5
003C4887 2019-04-01 00:38:11 20.6 25 22.5
003C4887 2019-04-01 00:05:54 20.6 25 21.4
003C4887 2019-03-31 23:33:35 20.6 25 21.5
003C4887 2019-03-31 23:01:17 20.7 25 21.2
003C4887 2019-03-31 22:28:58 20.7 26 21.2
003C4887 2019-03-31 21:56:40 20.7 26 21.3
003C4887 2019-03-31 21:24:21 20.8 26 21.3
003C4887 2019-03-31 20:52:04 20.8 27 21.4
003C4887 2019-03-31 20:19:47 20.8 27 21.4
003C4887 2019-03-31 19:47:32 20.8 27 21.7
003C4887 2019-03-31 19:15:15 20.8 27 21.8
003C4887 2019-03-31 18:42:58 20.7 27 21.9
003C4887 2019-03-31 18:10:41 20.7 27 21.8
003C4887 2019-03-31 17:38:24 20.6 27 21.9
003C4887 2019-03-31 17:06:06 20.6 28 22
003C4887 2019-03-31 16:33:47 20.5 27 22
003C4887 2019-03-31 16:01:30 20.5 27 21.9
003C4887 2019-03-31 15:28:39 20.6 27 22
003C4887 2019-03-31 14:56:20 20.6 27 22.1
003C4887 2019-03-31 14:23:59 20.6 27 21.1
003C4887 2019-03-31 13:51:40 20.6 27 20.9
003C4887 2019-03-31 13:19:22 20.6 27 21
003C4887 2019-03-31 12:47:01 20.5 27 20.8
003C4887 2019-03-31 12:14:42 20.6 27 20.8
003C4887 2019-03-31 11:42:23 20.5 27 20.8
003C4887 2019-03-31 11:10:05 20.5 27 20.8
003C4887 2019-03-31 10:37:46 20.5 27 21.1
003C4887 2019-03-31 10:05:30 20.5 27 21.2
003C4887 2019-03-31 09:33:11 20.5 27 21.5
003C4887 2019-03-31 09:00:52 20.5 27 21.3
003C4887 2019-03-31 08:28:34 20.5 27 21.2
003C4887 2019-03-31 07:56:15 20.5 28 21
003C4887 2019-03-31 07:23:57 20.6 28 21
003C4887 2019-03-31 06:51:41 20.6 28 20.8
003C4887 2019-03-31 06:19:21 20.6 28 20.9
003C4887 2019-03-31 05:47:03 20.6 28 20.9
003C4887 2019-03-31 05:14:44 20.6 28 21
003C4887 2019-03-31 04:42:25 20.6 27 20.8
003C4887 2019-03-31 04:10:07 20.6 27 20.9
003C4887 2019-03-31 02:37:48 20.6 27 20.9
003C4887 2019-03-31 02:05:28 20.6 27 20.7
003C4887 2019-03-31 01:33:11 20.6 27 20.7
003C4887 2019-03-31 01:00:53 20.6 27 20.8
003C4887 2019-03-31 00:28:36 20.6 27 20.6
003C4887 2019-03-30 23:56:20 20.7 27 20.4
003C4887 2019-03-30 23:24:03 20.7 27 20.5
003C4887 2019-03-30 22:51:46 20.7 27 20.2
003C4887 2019-03-30 22:19:30 20.7 27 20.3
003C4887 2019-03-30 21:47:13 20.8 27 20.5
003C4887 2019-03-30 21:14:59 20.8 27 20.7
003C4887 2019-03-30 20:42:41 20.8 27 20.8
003C4887 2019-03-30 20:10:24 20.8 27 20.6
003C4887 2019-03-30 19:38:07 20.9 27 20.4
003C4887 2019-03-30 19:05:52 20.9 27 20
003C4887 2019-03-30 18:33:36 20.9 27 20
003C4887 2019-03-30 18:01:19 20.9 27 20
003C4887 2019-03-30 17:29:03 20.9 27 20
003C4887 2019-03-30 16:56:47 20.9 27 20.1
003C4887 2019-03-30 16:24:30 20.9 27 19.8
003C4887 2019-03-30 15:52:12 20.9 27 19.9
003C4887 2019-03-30 15:19:55 20.9 27 19.7
003C4887 2019-03-30 14:47:38 20.8 27 19.5
003C4887 2019-03-30 14:15:21 20.8 27 19.5
003C4887 2019-03-30 13:43:04 20.8 27 19.2
003C4887 2019-03-30 13:10:47 20.8 27 19.1
003C4887 2019-03-30 12:38:30 20.7 27 19.2
003C4887 2019-03-30 12:06:14 20.9 27 19
003C4887 2019-03-30 12:04:59 20.7 27 18.9
003C4887 2019-03-30 11:32:42 20.7 27 18.8
003C4887 2019-03-30 11:00:24 20.7 27 18.9
003C4887 2019-03-30 10:28:08 20.6 27 19
003C4887 2019-03-30 09:55:52 20.6 27 19.2
003C4887 2019-03-30 09:23:35 20.6 27 19.4
003C4887 2019-03-30 08:51:19 20.6 27 19.2
003C4887 2019-03-30 08:19:02 20.6 27 19
003C4887 2019-03-30 07:46:45 20.6 27 20.7
003C4887 2019-03-30 07:14:28 20.6 27 20.7
003C4887 2019-03-30 06:42:12 20.7 27 20.9
003C4887 2019-03-30 06:09:55 20.6 27 20.9
003C4887 2019-03-30 05:37:38 20.7 27 21
003C4887 2019-03-30 05:05:20 20.7 27 20.9
003C4887 2019-03-30 04:33:03 20.7 27 20.9
003C4887 2019-03-30 04:00:45 20.7 27 20.7
003C4887 2019-03-30 03:28:28 20.7 27 20.8
003C4887 2019-03-30 02:56:12 20.8 28 20.4
003C4887 2019-03-30 02:23:55 20.8 28 20.5
003C4887 2019-03-30 01:51:38 20.8 28 20.6
003C4887 2019-03-30 01:19:21 20.8 28 20.6
003C4887 2019-03-30 00:47:04 20.9 28 20.5
003C4887 2019-03-30 00:14:46 20.9 28 20.6
003C4887 2019-03-29 23:42:29 20.9 28 20.5
003C4887 2019-03-29 23:10:12 21 28 20.5
003C4887 2019-03-29 22:37:55 21 28 20.2
003C4887 2019-03-29 22:05:38 21 28 20.2
003C4887 2019-03-29 21:33:21 21 28 20.2
003C4887 2019-03-29 21:01:05 21 28 20.1
003C4887 2019-03-29 20:28:47 21 28 19.9
003C4887 2019-03-29 19:56:29 21 28 19.6
003C4887 2019-03-29 19:24:11 20.9 28 19.6
003C4887 2019-03-29 18:51:53 20.9 28 19.5
003C4887 2019-03-29 18:19:36 21 28 17
003C4887 2019-03-29 17:47:19 21.1 28 16.6
003C4887 2019-03-29 17:15:03 21.1 28 15.9
003C4887 2019-03-29 16:42:46 21.1 28 15.8
003C4887 2019-03-29 16:10:29 21.1 28 15.5
003C4887 2019-03-29 15:38:17 21.1 28 15.4
003C4887 2019-03-29 15:06:00 21.1 27 15.4
003C4887 2019-03-29 14:33:41 21.1 27 15.4
003C4887 2019-03-29 14:01:24 21.1 27 15.2
003C4887 2019-03-29 13:29:07 21 27 15.3
003C4887 2019-03-29 12:56:50 21 27 15.1
003C4887 2019-03-29 12:24:34 21 27 14.3
003C4887 2019-03-29 11:52:16 21 26 14.4
003C4887 2019-03-29 11:19:59 21 26 14.5
003C4887 2019-03-29 10:47:43 21 26 14.2
003C4887 2019-03-29 10:15:28 20.9 26 14.5
003C4887 2019-03-29 09:43:09 20.9 26 14.8
003C4887 2019-03-29 09:10:17 20.8 26 15.3
003C4887 2019-03-29 08:38:00 20.7 25 15
003C4887 2019-03-29 08:05:43 20.7 25 15.3
003C4887 2019-03-29 07:33:28 20.7 25 15.5
003C4887 2019-03-29 07:01:10 20.7 25 15.4
003C4887 2019-03-29 06:28:54 20.7 25 15.9
003C4887 2019-03-29 05:56:37 20.7 24 15.8
003C4887 2019-03-29 05:24:21 20.8 24 16.2
003C4887 2019-03-29 04:52:09 20.8 24 16.8
003C4887 2019-03-29 04:19:48 20.9 24 17.4
003C4887 2019-03-29 03:15:16 21 24 17.4
003C4887 2019-03-29 02:43:00 21 24 17.5
003C4887 2019-03-29 02:10:45 21 24 17.6
003C4887 2019-03-29 01:38:33 21 24 17.8
003C4887 2019-03-29 01:06:17 21.1 24 17.9
003C4887 2019-03-29 00:34:01 21.1 24 18.2
003C4887 2019-03-29 00:01:44 21.1 24 18.2
003C4887 2019-03-28 23:29:28 21.1 24 18.3
003C4887 2019-03-28 22:57:12 21.1 24 18.3
003C4887 2019-03-28 22:24:55 21.1 24 18.4
003C4887 2019-03-28 21:52:41 21.1 24 18.5
003C4887 2019-03-28 21:20:25 21.2 24 18.7
003C4887 2019-03-28 20:48:07 21.2 24 18.6
003C4887 2019-03-28 20:15:51 21.2 24 18.5
003C4887 2019-03-28 19:43:37 21.2 24 18.3
003C4887 2019-03-28 19:11:22 21.1 24 18.3
003C4887 2019-03-28 18:39:07 21.1 23 18.4
003C4887 2019-03-28 18:06:52 21.2 23 18.5
003C4887 2019-03-28 17:34:35 21.2 23 18.5
003C4887 2019-03-28 17:02:19 21.2 23 18.4
003C4887 2019-03-28 16:30:05 21.2 23 18.7
003C4887 2019-03-28 15:57:47 21.1 23 18.8
003C4887 2019-03-28 15:25:31 21.1 23 18.8
003C4887 2019-03-28 14:53:14 21.1 23 18.4
003C4887 2019-03-28 14:20:58 21 22 18.4
003C4887 2019-03-28 13:48:43 21 22 18.5
003C4887 2019-03-28 13:16:27 21 22 18.7
003C4887 2019-03-28 12:44:10 20.9 21 18.7
003C4887 2019-03-28 12:11:55 20.9 21 18.6
003C4887 2019-03-28 11:39:37 20.9 21 18.7
003C4887 2019-03-28 11:07:21 20.9 21 18.5
003C4887 2019-03-28 10:35:04 20.8 20 18.9
003C4887 2019-03-28 10:02:48 20.8 20 19.1
003C4887 2019-03-28 09:30:32 20.8 20 19.4
003C4887 2019-03-28 08:58:16 20.8 19 19.2
003C4887 2019-03-28 08:26:00 20.7 19 19.5
003C4887 2019-03-28 07:53:42 20.7 19 19.7
003C4887 2019-03-28 07:21:27 20.7 19 19.9
003C4887 2019-03-28 06:49:09 20.7 19 20
003C4887 2019-03-28 06:16:19 20.7 19 20.2
003C4887 2019-03-28 05:44:04 20.7 19 20.5
003C4887 2019-03-28 05:11:48 20.7 19 20.3
003C4887 2019-03-28 04:39:33 20.7 18 20.3
003C4887 2019-03-28 04:07:16 20.7 18 20.4
003C4887 2019-03-28 03:35:01 20.7 18 20.1
003C4887 2019-03-28 03:02:44 20.7 18 20.4
003C4887 2019-03-28 02:30:30 20.8 18 20.3
003C4887 2019-03-28 01:58:11 20.8 18 21.6
003C4887 2019-03-28 01:25:55 20.8 17 22.5
003C4887 2019-03-28 00:53:41 20.8 17 23.4
003C4887 2019-03-28 00:21:24 20.8 17 24
003C4887 2019-03-27 23:49:09 20.9 17 24
003C4887 2019-03-27 23:16:53 20.9 17 24
003C4887 2019-03-27 22:44:38 20.9 16 24
003C4887 2019-03-27 22:12:22 20.9 16 24
003C4887 2019-03-27 21:40:06 21 16 24
003C4887 2019-03-27 21:07:50 21 16 23.9
003C4887 2019-03-27 20:35:36 21 16 23.9
003C4887 2019-03-27 20:03:21 21.1 16 24
003C4887 2019-03-27 19:31:06 21.1 16 23.9
003C4887 2019-03-27 18:58:50 21.1 15 23.8
003C4887 2019-03-27 18:26:37 21.2 15 23.8
003C4887 2019-03-27 17:54:21 21.2 16 23.8
003C4887 2019-03-27 17:22:05 21.3 16 23.8
003C4887 2019-03-27 16:49:49 21.3 16 23.7
003C4887 2019-03-27 16:17:32 21.3 16 23.7
003C4887 2019-03-27 15:45:16 21.3 16 23.7
003C4887 2019-03-27 15:13:01 21.2 16 23.8
003C4887 2019-03-27 14:40:46 21.1 16 23.7
003C4887 2019-03-27 14:08:28 20.9 16 23.7
003C4887 2019-03-27 13:36:13 20.9 16 23.6
003C4887 2019-03-27 13:03:59 20.8 15 23.6
003C4887 2019-03-27 12:31:43 20.8 15 22.9
003C4887 2019-03-27 11:59:27 20.7 15 22.1
003C4887 2019-03-27 11:27:11 20.7 15 20.9
003C4887 2019-03-27 10:54:55 20.7 15 19.4
003C4887 2019-03-27 10:22:40 20.6 15 19.5
003C4887 2019-03-27 09:50:23 20.6 15 19.7
003C4887 2019-03-27 09:18:06 20.6 14 20.2
003C4887 2019-03-27 08:45:49 20.5 14 20.3
003C4887 2019-03-27 08:13:33 20.6 14 20.4
003C4887 2019-03-27 07:41:18 20.5 14 20.4
003C4887 2019-03-27 07:09:02 20.6 14 20.3
003C4887 2019-03-27 06:36:45 20.6 14 20.3
003C4887 2019-03-27 06:04:28 20.6 14 20.4
003C4887 2019-03-27 05:32:12 20.6 14 20.4
003C4887 2019-03-27 04:59:55 20.6 14 20.3
003C4887 2019-03-27 04:27:37 20.6 14 20.4
003C4887 2019-03-27 03:55:20 20.6 14 20.3
003C4887 2019-03-27 03:22:30 20.7 14 20.2
003C4887 2019-03-27 02:50:14 20.7 14 20.3
003C4887 2019-03-27 02:17:56 20.7 14 20.1
003C4887 2019-03-27 01:45:40 20.7 14 20.2
003C4887 2019-03-27 01:13:25 20.8 14 20.4
003C4887 2019-03-27 00:41:06 20.8 14 20.4
003C4887 2019-03-27 00:08:49 20.8 14 20.6
003C4887 2019-03-26 23:36:33 20.9 14 20.7
003C4887 2019-03-26 23:04:16 20.9 14 20.5
003C4887 2019-03-26 22:31:59 21 14 20.6
003C4887 2019-03-26 21:59:43 21 14 20.6
003C4887 2019-03-26 21:27:25 21.1 14 20.6
003C4887 2019-03-26 20:55:09 21.1 14 21.8
003C4887 2019-03-26 20:22:53 21.1 14 21.5
003C4887 2019-03-26 19:50:36 21.1 14 21.4
003C4887 2019-03-26 19:18:20 21.2 14 21.3
003C4887 2019-03-26 18:46:04 21.2 14 21.4
003C4887 2019-03-26 18:13:47 21.2 14 21.4
003C4887 2019-03-26 17:41:30 21.3 14 21.3
003C4887 2019-03-26 17:09:14 21.3 15 21.3
003C4887 2019-03-26 16:36:57 21.3 15 21.5
003C4887 2019-03-26 16:04:42 21.3 15 21.6
003C4887 2019-03-26 15:32:26 21.2 15 21.4
003C4887 2019-03-26 15:00:12 21.1 16 21.5
003C4887 2019-03-26 14:27:55 20.9 16 21.6
003C4887 2019-03-26 13:55:38 20.8 16 21.5
003C4887 2019-03-26 13:23:23 20.7 16 21.6
003C4887 2019-03-26 12:51:07 20.6 17 21.6
003C4887 2019-03-26 12:18:50 20.5 17 21.6
003C4887 2019-03-26 11:46:33 20.5 17 21.6
003C4887 2019-03-26 11:14:17 20.5 17 21.6
003C4887 2019-03-26 10:42:01 20.5 18 21.6
003C4887 2019-03-26 10:09:44 20.5 18 21.6
003C4887 2019-03-26 09:37:26 20.5 19 21.6
003C4887 2019-03-26 09:05:08 20.5 19 21.7
003C4887 2019-03-26 08:32:50 20.5 20 21.7
003C4887 2019-03-26 08:00:33 20.5 20 21.7
003C4887 2019-03-26 07:28:15 20.5 20 20.4
003C4887 2019-03-26 06:55:57 20.5 20 20.4
003C4887 2019-03-26 06:23:37 20.5 20 20.4
003C4887 2019-03-26 05:51:20 20.5 20 20.6
003C4887 2019-03-26 05:19:02 20.5 20 20.6
003C4887 2019-03-26 04:46:46 20.5 20 20.6
003C4887 2019-03-26 04:14:29 20.5 20 20.5
003C4887 2019-03-26 03:42:11 20.6 20 20.4
003C4887 2019-03-26 03:09:53 20.5 20 20.5
003C4887 2019-03-26 02:37:37 20.5 20 20.4
003C4887 2019-03-26 02:05:22 20.6 20 20.4
003C4887 2019-03-26 01:33:07 20.6 20 20.4
003C4887 2019-03-26 01:00:51 20.8 20 20.4
003C4887 2019-03-26 00:59:36 20.6 20 20.4
003C4887 2019-03-26 00:27:19 20.6 20 20.2
003C4887 2019-03-25 23:55:01 20.6 21 20.2
003C4887 2019-03-25 23:22:44 20.7 21 20.1
003C4887 2019-03-25 22:50:28 20.7 21 19.8
003C4887 2019-03-25 22:18:10 20.8 21 20
003C4887 2019-03-25 21:45:54 20.8 21 19.8
003C4887 2019-03-25 21:13:37 20.8 21 19.6
003C4887 2019-03-25 20:41:22 20.8 21 19.5
003C4887 2019-03-25 20:09:06 20.8 21 19.1
003C4887 2019-03-25 19:36:51 20.8 21 19
003C4887 2019-03-25 19:04:35 20.9 21 18.6
003C4887 2019-03-25 18:32:19 20.9 21 18.5
003C4887 2019-03-25 18:00:05 21 21 18.4
003C4887 2019-03-25 17:27:51 21 22 18
003C4887 2019-03-25 16:55:36 21 23 17.4
003C4887 2019-03-25 16:23:19 21 23 17
003C4887 2019-03-25 15:51:02 20.9 23 16.9
003C4887 2019-03-25 15:18:45 21 23 16.9
003C4887 2019-03-25 14:46:27 21 24 16.7
003C4887 2019-03-25 14:14:10 21 24 16.2
003C4887 2019-03-25 13:41:52 20.9 24 16
003C4887 2019-03-25 13:09:35 20.8 24 15.8
003C4887 2019-03-25 12:37:18 20.7 23 15.3
003C4887 2019-03-25 12:05:00 20.7 23 18.5
003C4887 2019-03-25 11:32:43 20.7 24 18.4
003C4887 2019-03-25 11:00:26 20.6 24 18.4
003C4887 2019-03-25 10:28:08 20.5 24 18.5
003C4887 2019-03-25 09:55:51 20.3 24 19.1
003C4887 2019-03-25 09:23:35 20.2 23 18.7
003C4887 2019-03-25 08:51:19 20.2 23 18.8
003C4887 2019-03-25 08:19:02 20.2 23 18.9
003C4887 2019-03-25 07:46:46 20.2 23 19.2
003C4887 2019-03-25 07:14:31 20.2 23 19.2
003C4887 2019-03-25 06:42:13 20.2 23 19.2
003C4887 2019-03-25 06:09:57 20.2 23 19.3
003C4887 2019-03-25 05:37:40 20.2 23 19.4
003C4887 2019-03-25 05:05:26 20.2 23 19.4
003C4887 2019-03-25 04:33:06 20.2 23 19.4
003C4887 2019-03-25 04:00:51 20.2 23 19.7
003C4887 2019-03-25 03:28:33 20.3 23 19.8
003C4887 2019-03-25 02:56:14 20.3 23 19.8
003C4887 2019-03-25 02:23:57 20.3 23 19.9
003C4887 2019-03-25 01:51:41 20.4 23 20
003C4887 2019-03-25 01:19:25 20.4 23 20.2
003C4887 2019-03-25 00:47:08 20.4 23 20.1
003C4887 2019-03-25 00:14:50 20.5 23 20.3
003C4887 2019-03-24 23:42:34 20.5 23 20.4
003C4887 2019-03-24 23:10:18 20.6 23 18.5
003C4887 2019-03-24 22:38:02 20.6 23 18.7
003C4887 2019-03-24 22:05:12 20.6 23 18.8
003C4887 2019-03-24 21:32:56 20.7 23 18.7
003C4887 2019-03-24 21:00:40 20.8 23 18.5
003C4887 2019-03-24 20:28:23 20.8 23 18.5
003C4887 2019-03-24 19:56:07 20.9 23 18.5
003C4887 2019-03-24 19:23:49 20.9 23 18.6
003C4887 2019-03-24 18:51:33 20.9 23 18.3
003C4887 2019-03-24 18:19:17 20.9 23 18.5
003C4887 2019-03-24 17:46:59 20.9 23 18.4
003C4887 2019-03-24 17:14:44 20.9 23 18.4
003C4887 2019-03-24 16:42:29 20.8 23 18.5
003C4887 2019-03-24 16:10:12 20.7 24 18.6
003C4887 2019-03-24 15:37:57 20.6 24 18.3
003C4887 2019-03-24 15:05:44 20.5 24 18.4
003C4887 2019-03-24 14:33:27 20.3 24 18.5
003C4887 2019-03-24 14:01:11 20.2 23 18.4
003C4887 2019-03-24 13:28:53 20.2 23 18.2
003C4887 2019-03-24 12:56:36 20.2 23 18.2
003C4887 2019-03-24 12:24:18 20.2 23 18.4
003C4887 2019-03-24 11:52:00 20.2 23 18.2
003C4887 2019-03-24 11:19:43 20.1 23 18.4
003C4887 2019-03-24 10:47:26 20.1 23 18.5
003C4887 2019-03-24 10:15:09 20.1 23 18.5
003C4887 2019-03-24 09:42:53 20.1 23 18.5
003C4887 2019-03-24 09:10:35 20.2 23 18.5
003C4887 2019-03-24 08:38:19 20.1 23 18.4
003C4887 2019-03-24 08:06:02 20.1 23 18.5
003C4887 2019-03-24 07:33:46 20.1 23 18.7
003C4887 2019-03-24 07:01:30 20.2 23 18.6
003C4887 2019-03-24 06:29:15 20.1 23 18.6
003C4887 2019-03-24 05:57:00 20.2 23 18.7
003C4887 2019-03-24 05:24:44 20.2 23 18.7
003C4887 2019-03-24 04:52:28 20.1 23 19.1
003C4887 2019-03-24 04:20:11 20.2 23 19.3
003C4887 2019-03-24 03:47:55 20.2 23 19.3
003C4887 2019-03-24 03:15:39 20.2 23 19.2
003C4887 2019-03-24 02:43:23 20.2 23 19.3
003C4887 2019-03-24 02:11:08 20.2 23 19.3
003C4887 2019-03-24 01:38:51 20.2 23 19.3
003C4887 2019-03-24 01:06:35 20.2 23 19.4
003C4887 2019-03-24 00:34:17 20.2 23 19.3
003C4887 2019-03-24 00:02:01 20.2 22 19.4
003C4887 2019-03-23 23:29:44 20.2 22 19.3
003C4887 2019-03-23 22:57:27 20.2 22 19.2
003C4887 2019-03-23 22:25:12 20.2 22 19.1
003C4887 2019-03-23 21:52:56 20.2 22 18.9
003C4887 2019-03-23 21:20:39 20.3 22 18.8
003C4887 2019-03-23 20:48:22 20.3 22 18.7
003C4887 2019-03-23 20:16:04 20.3 22 18.7
003C4887 2019-03-23 19:43:46 20.3 22 18.9
003C4887 2019-03-23 19:10:57 20.3 22 18.9
003C4887 2019-03-23 18:38:37 20.3 21 18.8
003C4887 2019-03-23 18:06:19 20.3 21 18.7
003C4887 2019-03-23 17:34:03 20.3 21 20.4
003C4887 2019-03-23 17:01:45 20.3 21 20.4
003C4887 2019-03-23 16:29:28 20.3 21 20.3
003C4887 2019-03-23 15:57:09 20.3 21 20.1
003C4887 2019-03-23 15:24:51 20.3 21 19.9
003C4887 2019-03-23 14:52:33 20.3 21 19.9
003C4887 2019-03-23 14:20:15 20.3 21 19.7
003C4887 2019-03-23 13:47:58 20.3 21 19.7
003C4887 2019-03-23 13:15:41 20.3 20 21.2
003C4887 2019-03-23 12:43:25 20.3 20 21.1
003C4887 2019-03-23 12:11:08 20.3 20 21
003C4887 2019-03-23 11:38:50 20.3 20 21
003C4887 2019-03-23 11:06:33 20.3 20 20.9
003C4887 2019-03-23 10:34:17 20.3 20 20.9
003C4887 2019-03-23 10:02:01 20.3 20 21
003C4887 2019-03-23 09:29:46 20.4 20 21
003C4887 2019-03-23 08:57:29 20.3 20 21
003C4887 2019-03-23 08:25:13 20.4 20 21
003C4887 2019-03-23 07:52:55 20.4 20 21
003C4887 2019-03-23 07:20:37 20.4 20 20.9
003C4887 2019-03-23 06:48:22 20.4 19 20.7
003C4887 2019-03-23 06:16:03 20.4 19 20.6
003C4887 2019-03-23 05:43:46 20.4 19 20.7
003C4887 2019-03-23 05:11:28 20.4 19 20.8
003C4887 2019-03-23 04:39:10 20.5 19 20.8
003C4887 2019-03-23 04:06:52 20.5 19 19.5
003C4887 2019-03-23 03:34:33 20.6 19 19.5
003C4887 2019-03-23 03:02:15 20.6 19 19.6
003C4887 2019-03-23 02:29:59 20.6 19 19.9
003C4887 2019-03-23 01:57:41 20.7 19 20.1
003C4887 2019-03-23 01:25:23 20.7 18 20.2
003C4887 2019-03-23 00:53:06 20.8 18 20.3
003C4887 2019-03-23 00:20:49 20.9 18 20.5
003C4887 2019-03-22 23:48:32 20.9 18 19
003C4887 2019-03-22 23:16:14 21 18 19
003C4887 2019-03-22 22:43:57 21.1 18 19.1
003C4887 2019-03-22 22:11:39 21.2 18 19.6
003C4887 2019-03-22 21:39:21 21.2 18 19.6
003C4887 2019-03-22 21:07:05 21.2 18 19.8
003C4887 2019-03-22 20:34:48 21.2 18 19.7
003C4887 2019-03-22 20:02:33 21.2 18 20
003C4887 2019-03-22 19:30:18 21.2 17 20
003C4887 2019-03-22 18:58:02 21.2 17 20.1
003C4887 2019-03-22 18:25:45 21.2 17 20.3
003C4887 2019-03-22 17:53:29 21.2 17 20.4
003C4887 2019-03-22 17:21:12 21.2 17 20.4
003C4887 2019-03-22 16:48:54 21.2 17 20.5
003C4887 2019-03-22 16:16:06 21.1 18 20.5
003C4887 2019-03-22 15:43:49 21 18 20.6
003C4887 2019-03-22 15:11:32 20.8 18 20.5
003C4887 2019-03-22 14:39:15 20.7 19 20.7
003C4887 2019-03-22 14:06:58 20.6 19 20.7
003C4887 2019-03-22 13:34:41 20.6 20 20.5
003C4887 2019-03-22 13:02:24 20.6 20 20.5
003C4887 2019-03-22 12:30:08 20.6 21 20.7
003C4887 2019-03-22 11:57:51 20.6 21 21.9
003C4887 2019-03-22 11:25:36 20.6 21 21.7
003C4887 2019-03-22 10:53:17 20.6 22 21.5
003C4887 2019-03-22 10:21:00 20.6 22 21.6
003C4887 2019-03-22 09:48:42 20.5 23 21.7
003C4887 2019-03-22 09:16:24 20.5 23 21.5
003C4887 2019-03-22 08:44:07 20.5 23 21.6
003C4887 2019-03-22 08:11:49 20.5 24 21.5
003C4887 2019-03-22 07:39:33 20.5 24 21.5
003C4887 2019-03-22 07:07:17 20.5 25 21.4
003C4887 2019-03-22 06:35:01 20.5 25 21.4
003C4887 2019-03-22 06:02:45 20.5 25 21.6
003C4887 2019-03-22 05:30:29 20.5 25 21.4
003C4887 2019-03-22 04:58:13 20.6 26 21.5
003C4887 2019-03-22 04:26:01 20.6 26 21.7
003C4887 2019-03-22 03:53:41 20.6 26 21.6
003C4887 2019-03-22 03:21:23 20.6 26 21.6
003C4887 2019-03-22 02:49:06 20.6 27 21.4
003C4887 2019-03-22 02:16:49 20.6 27 21.5
003C4887 2019-03-22 01:44:32 20.6 27 21.3
003C4887 2019-03-22 01:12:15 20.6 27 21
003C4887 2019-03-22 00:39:58 20.7 28 20.9
003C4887 2019-03-22 00:07:44 20.7 28 21.1
003C4887 2019-03-21 23:35:25 20.7 28 20.9
003C4887 2019-03-21 23:03:07 20.8 28 20.6
003C4887 2019-03-21 22:30:47 20.8 28 18.8
003C4887 2019-03-21 21:58:30 20.8 28 18.9
003C4887 2019-03-21 21:26:13 20.8 28 19.2
003C4887 2019-03-21 20:53:55 20.8 28 18.8
003C4887 2019-03-21 20:21:39 20.9 28 18.9
003C4887 2019-03-21 19:49:22 20.9 27 18.9
003C4887 2019-03-21 19:17:05 20.9 27 18.9
003C4887 2019-03-21 18:44:48 21 27 19.1
003C4887 2019-03-21 18:12:32 21.1 27 19
003C4887 2019-03-21 17:40:16 21.1 27 20.6
003C4887 2019-03-21 17:08:00 21.2 27 20.5
003C4887 2019-03-21 16:35:44 21.2 27 20.5
003C4887 2019-03-21 16:03:27 21.3 27 20.5
003C4887 2019-03-21 15:31:11 21.2 28 20.4
003C4887 2019-03-21 14:58:55 21.2 27 20.5
003C4887 2019-03-21 14:26:41 21.1 27 20.6
003C4887 2019-03-21 13:54:24 21 26 20.7
003C4887 2019-03-21 13:21:43 20.9 26 20.7
003C4887 2019-03-21 12:49:30 20.8 26 20.8
003C4887 2019-03-21 12:17:09 20.7 25 20.9
003C4887 2019-03-21 11:44:52 20.7 25 20.7
003C4887 2019-03-21 11:12:38 20.7 25 20.8
003C4887 2019-03-21 10:40:23 20.6 25 20.8
003C4887 2019-03-21 10:08:06 20.6 25 20.8
003C4887 2019-03-21 09:35:49 20.5 25 20.8
003C4887 2019-03-21 09:03:32 20.5 25 20.7
003C4887 2019-03-21 08:31:15 20.5 25 20.8
003C4887 2019-03-21 07:58:58 20.5 25 20.7
003C4887 2019-03-21 07:26:42 20.5 25 20.8
003C4887 2019-03-21 06:54:26 20.5 25 20.7
003C4887 2019-03-21 06:22:09 20.5 25 20.8
003C4887 2019-03-21 05:49:53 20.5 25 20.7
003C4887 2019-03-21 05:17:38 20.5 25 20.9
003C4887 2019-03-21 04:45:23 20.5 25 19.2
003C4887 2019-03-21 04:13:06 20.5 25 19.3
003C4887 2019-03-21 03:40:50 20.5 26 19.4
003C4887 2019-03-21 03:08:32 20.5 26 19.2
003C4887 2019-03-21 02:36:15 20.5 26 19.1
003C4887 2019-03-21 02:03:58 20.5 26 19.2
003C4887 2019-03-21 01:31:43 20.5 26 19.3
003C4887 2019-03-21 00:59:27 20.5 26 19
003C4887 2019-03-21 00:27:09 20.5 26 18.9
003C4887 2019-03-20 23:54:52 20.5 26 18.7
003C4887 2019-03-20 23:22:33 20.6 26 18.7
003C4887 2019-03-20 22:50:16 20.6 26 18.6
003C4887 2019-03-20 22:17:59 20.6 26 18.9
003C4887 2019-03-20 21:45:43 20.6 26 18.8
003C4887 2019-03-20 21:13:25 20.6 26 19.1
003C4887 2019-03-20 20:41:09 20.7 26 19.1
003C4887 2019-03-20 20:08:53 20.7 26 19
003C4887 2019-03-20 19:36:37 20.8 26 19
003C4887 2019-03-20 19:04:20 20.8 26 19.3
003C4887 2019-03-20 18:32:06 20.8 25 19.2
003C4887 2019-03-20 17:59:47 20.9 25 18.9
003C4887 2019-03-20 17:27:30 20.9 25 19.1
003C4887 2019-03-20 16:55:15 21 25 19
003C4887 2019-03-20 16:23:02 21 25 19.3
003C4887 2019-03-20 15:50:39 21.1 26 19.1
003C4887 2019-03-20 15:18:20 21 25 19.3
003C4887 2019-03-20 14:46:02 21 25 19.1
003C4887 2019-03-20 14:13:44 20.9 25 19.3
003C4887 2019-03-20 13:41:25 20.9 25 19.5
003C4887 2019-03-20 13:09:07 20.8 25 19.6
003C4887 2019-03-20 12:36:48 20.8 25 19.6
003C4887 2019-03-20 12:04:29 20.8 25 21
003C4887 2019-03-20 11:32:10 20.7 25 21.2
003C4887 2019-03-20 10:59:52 20.7 25 21.3
003C4887 2019-03-20 10:27:02 20.5 25 21.6
003C4887 2019-03-20 09:54:42 20.5 25 21.7
003C4887 2019-03-20 09:22:24 20.4 25 21.8
003C4887 2019-03-20 08:50:05 20.4 25 21.8
003C4887 2019-03-20 08:17:47 20.4 26 21.7
003C4887 2019-03-20 07:45:28 20.4 26 21.7
003C4887 2019-03-20 07:13:10 20.4 26 21.8
003C4887 2019-03-20 06:40:51 20.4 26 21.8
003C4887 2019-03-20 06:08:33 20.4 27 21.7
003C4887 2019-03-20 05:36:15 20.4 27 21.8
003C4887 2019-03-20 05:03:58 20.5 27 21.8
003C4887 2019-03-20 04:31:40 20.5 27 21.7
003C4887 2019-03-20 03:59:22 20.5 27 21.6
003C4887 2019-03-20 03:27:04 20.5 27 21.5
003C4887 2019-03-20 02:54:45 20.5 27 21.6
003C4887 2019-03-20 02:22:26 20.5 28 21.6
003C4887 2019-03-20 01:50:08 20.5 28 21.6
003C4887 2019-03-20 01:17:49 20.5 28 21.4
003C4887 2019-03-20 00:45:30 20.6 28 21.3
003C4887 2019-03-20 00:13:12 20.6 28 21.3
003C4887 2019-03-19 23:40:54 20.6 28 21.1
003C4887 2019-03-19 23:08:35 20.6 28 19.5
003C4887 2019-03-19 22:36:18 20.7 28 19.4
003C4887 2019-03-19 22:04:00 20.7 28 19.4
003C4887 2019-03-19 21:31:42 20.7 29 19.5
003C4887 2019-03-19 20:59:24 20.7 29 19.3
003C4887 2019-03-19 20:27:06 20.8 29 20.8
003C4887 2019-03-19 19:54:48 20.8 29 20.5
003C4887 2019-03-19 19:22:30 20.9 29 20.5
003C4887 2019-03-19 18:50:12 21 29 20.7
003C4887 2019-03-19 18:17:55 21.1 29 21
003C4887 2019-03-19 17:45:38 21.1 29 21
003C4887 2019-03-19 17:13:22 21.2 30 21
003C4887 2019-03-19 16:41:05 21.1 30 21
003C4887 2019-03-19 16:08:48 21.1 29 21.2
003C4887 2019-03-19 15:36:31 21.1 29 21.2
003C4887 2019-03-19 15:04:14 21.1 29 21.5
003C4887 2019-03-19 14:31:57 21.1 29 21.7
003C4887 2019-03-19 13:59:40 21.1 29 21.6
003C4887 2019-03-19 13:27:25 21 29 21.6
003C4887 2019-03-19 12:55:07 21 29 21.4
003C4887 2019-03-19 12:22:52 20.9 29 21.4
003C4887 2019-03-19 11:50:34 20.8 29 21.5
003C4887 2019-03-19 11:18:19 20.8 29 21.5
003C4887 2019-03-19 10:46:03 20.7 28 21.7
003C4887 2019-03-19 10:13:50 20.6 28 21.8
003C4887 2019-03-19 09:41:34 20.5 27 21.7
003C4887 2019-03-19 09:09:19 20.5 27 21.7
003C4887 2019-03-19 08:37:03 20.4 27 21.8
003C4887 2019-03-19 08:04:48 20.4 27 21.9
003C4887 2019-03-19 07:32:00 20.4 27 20.7
003C4887 2019-03-19 06:59:43 20.4 27 20.7
003C4887 2019-03-19 06:27:27 20.4 27 20.7
003C4887 2019-03-19 05:55:10 20.4 27 20.5
003C4887 2019-03-19 05:22:54 20.4 27 20.4
003C4887 2019-03-19 04:50:38 20.5 27 20.2
003C4887 2019-03-19 04:18:23 20.5 27 20
003C4887 2019-03-19 03:46:07 20.5 27 19.8
003C4887 2019-03-19 03:13:50 20.5 27 19.5
003C4887 2019-03-19 02:41:32 20.5 27 19.5
003C4887 2019-03-19 02:09:15 20.5 27 20.8
003C4887 2019-03-19 01:37:00 20.5 27 20.6
003C4887 2019-03-19 01:04:42 20.5 27 20.6
003C4887 2019-03-19 00:32:24 20.5 27 20.4
003C4887 2019-03-19 00:00:08 20.5 27 20.6
003C4887 2019-03-18 23:27:51 20.5 27 20.7
003C4887 2019-03-18 22:55:35 20.5 27 20.7
003C4887 2019-03-18 22:23:20 20.5 27 20.8
003C4887 2019-03-18 21:51:03 20.6 27 20.6
003C4887 2019-03-18 21:18:48 20.6 27 20.6
003C4887 2019-03-18 20:46:32 20.6 27 20.9
003C4887 2019-03-18 20:14:15 20.6 27 20.7
003C4887 2019-03-18 19:41:59 20.7 27 20.6
003C4887 2019-03-18 19:09:43 20.7 27 20.8
003C4887 2019-03-18 18:37:26 20.7 27 21.9
003C4887 2019-03-18 18:05:10 20.8 27 21.9
003C4887 2019-03-18 17:32:53 20.8 27 21.9
003C4887 2019-03-18 17:00:35 20.8 27 21.9
003C4887 2019-03-18 16:28:18 20.8 27 21.9
003C4887 2019-03-18 15:56:01 20.8 27 22
003C4887 2019-03-18 15:23:44 20.7 27 22.1
003C4887 2019-03-18 14:51:30 20.7 27 22.3
003C4887 2019-03-18 14:19:09 20.7 27 22.3
003C4887 2019-03-18 13:46:51 20.6 27 22.3
003C4887 2019-03-18 13:14:32 20.7 27 22.3
003C4887 2019-03-18 12:42:15 20.6 27 21.2
003C4887 2019-03-18 12:09:58 20.6 27 21.3
003C4887 2019-03-18 11:37:40 20.6 27 21.3
003C4887 2019-03-18 11:05:22 20.6 27 21.3
003C4887 2019-03-18 10:33:05 20.6 27 21.2
003C4887 2019-03-18 10:00:46 20.5 27 21.3
003C4887 2019-03-18 09:28:28 20.5 27 21.2
003C4887 2019-03-18 08:56:11 20.5 27 21.2
003C4887 2019-03-18 08:23:52 20.4 27 21.2
003C4887 2019-03-18 07:51:36 20.4 27 21.3
003C4887 2019-03-18 07:19:18 20.5 27 21.1
003C4887 2019-03-18 06:47:00 20.5 27 21.1
003C4887 2019-03-18 06:14:41 20.4 27 21.1
003C4887 2019-03-18 05:42:23 20.5 27 20.9
003C4887 2019-03-18 05:10:06 20.7 27 19.5
003C4887 2019-03-18 05:08:51 20.5 27 19.7
003C4887 2019-03-18 04:36:34 20.5 27 19.9
003C4887 2019-03-18 04:04:17 20.4 27 19.8
003C4887 2019-03-18 03:32:00 20.4 27 20
003C4887 2019-03-18 02:59:43 20.4 27 19.9
003C4887 2019-03-18 02:27:27 20.5 26 19.8
003C4887 2019-03-18 01:55:10 20.4 26 19.7
003C4887 2019-03-18 01:22:53 20.4 26 19.8
003C4887 2019-03-18 00:50:38 20.5 26 20
003C4887 2019-03-18 00:18:21 20.5 26 20
003C4887 2019-03-17 23:46:04 20.4 26 20
003C4887 2019-03-17 23:13:48 20.5 26 20
003C4887 2019-03-17 22:41:32 20.4 26 20.1
003C4887 2019-03-17 22:09:15 20.4 26 20.3
003C4887 2019-03-17 21:36:58 20.5 26 20.4
003C4887 2019-03-17 21:04:42 20.4 26 20.5
003C4887 2019-03-17 20:32:26 20.4 26 20.4
003C4887 2019-03-17 20:00:08 20.5 26 20.4
003C4887 2019-03-17 19:27:52 20.4 26 20.6
003C4887 2019-03-17 18:55:35 20.4 26 20.6
003C4887 2019-03-17 18:23:19 20.4 26 20.7
003C4887 2019-03-17 17:51:01 20.5 26 20.8
003C4887 2019-03-17 17:18:44 20.5 26 20.7
003C4887 2019-03-17 16:46:25 20.5 26 20.7
003C4887 2019-03-17 16:14:08 20.5 26 20.6
003C4887 2019-03-17 15:41:51 20.5 26 20.5
003C4887 2019-03-17 15:09:34 20.5 26 20.3
003C4887 2019-03-17 14:37:15 20.5 26 20.4
003C4887 2019-03-17 14:04:58 20.5 26 20.4
003C4887 2019-03-17 13:32:41 20.5 26 20.4
003C4887 2019-03-17 13:00:24 20.5 26 20.4
003C4887 2019-03-17 12:28:06 20.5 26 20.3
003C4887 2019-03-17 11:55:48 20.5 26 20.3
003C4887 2019-03-17 11:23:30 20.5 26 21.4
003C4887 2019-03-17 10:51:13 20.5 26 21.5
003C4887 2019-03-17 10:18:55 20.5 26 22.5
003C4887 2019-03-17 09:46:36 20.5 26 22.5
003C4887 2019-03-17 09:14:19 20.5 26 22.5
003C4887 2019-03-17 08:42:01 20.5 26 22.5
003C4887 2019-03-17 08:09:44 20.5 26 22.4
003C4887 2019-03-17 07:37:26 20.5 26 22.3
003C4887 2019-03-17 07:05:10 20.4 27 22.3
003C4887 2019-03-17 06:32:51 20.5 27 22.2
003C4887 2019-03-17 06:00:34 20.5 27 22.2
003C4887 2019-03-17 05:28:18 20.4 27 22.2
003C4887 2019-03-17 04:56:00 20.5 27 22.2
003C4887 2019-03-17 04:23:43 20.5 27 22.1
003C4887 2019-03-17 03:51:24 20.5 27 22.1
003C4887 2019-03-17 03:19:07 20.5 27 22.2
003C4887 2019-03-17 02:46:49 20.5 27 22.2
003C4887 2019-03-17 02:13:59 20.5 27 22.4
003C4887 2019-03-17 01:41:41 20.5 27 22.4
003C4887 2019-03-17 01:09:24 20.5 27 22.4
003C4887 2019-03-17 00:37:06 20.5 26 22.5
003C4887 2019-03-17 00:04:50 20.5 27 22.5
003C4887 2019-03-16 23:32:33 20.5 26 22.5
003C4887 2019-03-16 23:00:15 20.5 26 22.4
003C4887 2019-03-16 22:27:57 20.5 26 21.4
003C4887 2019-03-16 21:55:39 20.5 26 21.4
003C4887 2019-03-16 21:23:20 20.5 26 20
003C4887 2019-03-16 20:51:02 20.5 26 20.3
003C4887 2019-03-16 20:18:46 20.5 26 20.3
003C4887 2019-03-16 19:46:30 20.5 26 20.3
003C4887 2019-03-16 19:14:13 20.5 26 20.5
003C4887 2019-03-16 18:41:55 20.5 26 20.7
003C4887 2019-03-16 18:09:37 20.5 26 20.8
003C4887 2019-03-16 17:37:20 20.5 26 21
003C4887 2019-03-16 17:05:05 20.5 26 20.7
003C4887 2019-03-16 16:32:47 20.5 26 20.7
003C4887 2019-03-16 16:00:30 20.5 26 20.7
003C4887 2019-03-16 15:28:15 20.5 26 20.8
003C4887 2019-03-16 14:55:57 20.5 26 20.8
003C4887 2019-03-16 14:23:40 20.5 26 20.7
003C4887 2019-03-16 13:51:22 20.5 26 20.6
003C4887 2019-03-16 13:19:05 20.5 26 20.5
003C4887 2019-03-16 12:46:48 20.5 26 20.3
003C4887 2019-03-16 12:14:30 20.5 26 20.4
003C4887 2019-03-16 11:42:12 20.5 26 20.4
003C4887 2019-03-16 11:09:54 20.5 26 20.3
003C4887 2019-03-16 10:37:34 20.5 26 20.1
003C4887 2019-03-16 10:05:14 20.5 26 20
003C4887 2019-03-16 09:32:57 20.5 26 20.3
003C4887 2019-03-16 09:00:39 20.5 26 20.5
003C4887 2019-03-16 08:28:20 20.5 26 20.5
003C4887 2019-03-16 07:56:01 20.5 26 20.6
003C4887 2019-03-16 07:23:42 20.5 26 20.5
003C4887 2019-03-16 06:51:23 20.5 26 20.5
003C4887 2019-03-16 06:19:05 20.5 26 20.5
003C4887 2019-03-16 05:46:46 20.5 26 20.4
003C4887 2019-03-16 05:14:28 20.5 26 20.1
003C4887 2019-03-16 04:42:10 20.5 26 20
003C4887 2019-03-16 04:09:53 20.5 26 19.7
003C4887 2019-03-16 03:37:34 20.5 26 19.8
003C4887 2019-03-16 03:05:16 20.5 26 19.9
003C4887 2019-03-16 02:32:57 20.5 26 19.8
003C4887 2019-03-16 02:00:38 20.5 26 19.7
003C4887 2019-03-16 01:28:20 20.6 26 19.8
003C4887 2019-03-16 00:56:01 20.5 26 19.6
003C4887 2019-03-16 00:23:42 20.5 26 19.7
003C4887 2019-03-15 23:51:25 20.6 26 19.6
003C4887 2019-03-15 23:18:34 20.6 26 19.9
003C4887 2019-03-15 22:46:16 20.6 26 19.6
003C4887 2019-03-15 22:13:58 20.6 26 19.5
003C4887 2019-03-15 21:41:40 20.7 26 19.8
003C4887 2019-03-15 21:09:22 20.7 26 20
003C4887 2019-03-15 20:37:04 20.7 26 19.9
003C4887 2019-03-15 20:04:45 20.7 26 19.7
003C4887 2019-03-15 19:32:29 20.7 26 19.7
003C4887 2019-03-15 19:00:08 20.7 26 19.7
003C4887 2019-03-15 18:27:49 20.7 26 19.7
003C4887 2019-03-15 17:55:31 20.7 26 19.6
003C4887 2019-03-15 17:23:14 20.7 26 19.3
003C4887 2019-03-15 16:50:56 20.7 26 19.4
003C4887 2019-03-15 16:18:37 20.7 26 19.4
003C4887 2019-03-15 15:46:19 20.7 26 19.5
003C4887 2019-03-15 15:14:01 20.7 26 19.8
003C4887 2019-03-15 14:41:42 20.7 26 19.8
003C4887 2019-03-15 14:09:22 20.7 26 19.7
003C4887 2019-03-15 13:37:03 20.7 26 19.8
003C4887 2019-03-15 13:04:46 20.7 26 19.8
003C4887 2019-03-15 12:32:29 20.7 26 19.7
003C4887 2019-03-15 12:00:14 20.7 25 19.7
003C4887 2019-03-15 11:27:56 20.7 25 19.8
003C4887 2019-03-15 10:55:39 20.6 25 19.8
003C4887 2019-03-15 10:23:21 20.6 25 19.9
003C4887 2019-03-15 09:51:04 20.6 25 19.6
003C4887 2019-03-15 09:18:46 20.5 25 19.6
003C4887 2019-03-15 08:46:28 20.5 24 19.6
003C4887 2019-03-15 08:14:09 20.5 24 19.4
003C4887 2019-03-15 07:41:49 20.5 24 19.3
003C4887 2019-03-15 07:09:31 20.5 24 19.3
003C4887 2019-03-15 06:37:12 20.5 24 19.2
003C4887 2019-03-15 06:04:52 20.5 24 18.9
003C4887 2019-03-15 05:32:35 20.5 24 19.1
003C4887 2019-03-15 05:00:17 20.5 24 19.3
003C4887 2019-03-15 04:27:59 20.5 24 19.1
003C4887 2019-03-15 03:55:42 20.5 24 19.2
003C4887 2019-03-15 03:23:24 20.5 24 19
003C4887 2019-03-15 02:51:06 20.5 24 19
003C4887 2019-03-15 02:18:49 20.5 24 19.2
003C4887 2019-03-15 01:46:31 20.5 24 19
003C4887 2019-03-15 01:14:13 20.5 24 18.9
003C4887 2019-03-15 00:41:56 20.6 24 18.8
003C4887 2019-03-15 00:09:39 20.6 23 18.6
003C4887 2019-03-14 23:37:22 20.6 23 18.8
003C4887 2019-03-14 23:05:06 20.6 23 18.9
003C4887 2019-03-14 22:32:48 20.6 23 18.8
003C4887 2019-03-14 22:00:31 20.6 23 18.9
003C4887 2019-03-14 21:28:13 20.7 23 18.8
003C4887 2019-03-14 20:55:55 20.7 23 18.9
003C4887 2019-03-14 20:23:04 20.7 23 18.8
003C4887 2019-03-14 19:50:45 20.7 23 19
003C4887 2019-03-14 19:18:28 20.7 23 18.9
003C4887 2019-03-14 18:46:11 20.8 23 18.8
003C4887 2019-03-14 18:13:54 20.8 23 18.9
003C4887 2019-03-14 17:41:37 20.8 23 18.9
003C4887 2019-03-14 17:09:20 20.8 23 19.1
003C4887 2019-03-14 16:37:03 20.8 23 19
003C4887 2019-03-14 16:04:46 20.9 23 18.6
003C4887 2019-03-14 15:32:29 20.9 23 18.7
003C4887 2019-03-14 15:00:12 20.9 23 18.7
003C4887 2019-03-14 14:27:56 20.9 23 19.1
003C4887 2019-03-14 13:55:41 20.9 23 19.1
003C4887 2019-03-14 13:23:22 20.8 23 19.1
003C4887 2019-03-14 12:51:06 20.8 22 19.1
003C4887 2019-03-14 12:18:50 20.7 22 19.2
003C4887 2019-03-14 11:46:30 20.7 22 19.2
003C4887 2019-03-14 11:14:13 20.7 22 19.2
003C4887 2019-03-14 10:41:56 20.7 21 19
003C4887 2019-03-14 10:09:39 20.6 21 18.9
003C4887 2019-03-14 09:37:23 20.6 21 18.9
003C4887 2019-03-14 09:05:05 20.6 20 18.7
003C4887 2019-03-14 04:46:51 20.5 18 17.9
003C4887 2019-03-14 04:14:34 20.5 18 17.8
003C4887 2019-03-14 03:42:16 20.5 18 18.2
003C4887 2019-03-14 03:09:59 20.5 18 17.9
003C4887 2019-03-14 02:37:42 20.5 18 20
003C4887 2019-03-14 02:05:23 20.5 18 19.9
003C4887 2019-03-14 01:33:06 20.5 17 19.9
003C4887 2019-03-14 01:00:49 20.5 17 19.6
003C4887 2019-03-14 00:28:31 20.5 17 19.6
003C4887 2019-03-13 23:56:13 20.5 17 19.4
003C4887 2019-03-13 23:23:56 20.5 17 19.1
003C4887 2019-03-13 22:51:38 20.5 17 19.1
003C4887 2019-03-13 22:19:19 20.5 17 19.1
003C4887 2019-03-13 21:47:03 20.6 17 19.1
003C4887 2019-03-13 21:14:47 20.6 16 19
003C4887 2019-03-13 20:42:30 20.6 16 19
003C4887 2019-03-13 20:10:13 20.6 16 19.3
003C4887 2019-03-13 19:37:56 20.7 16 19.4
003C4887 2019-03-13 19:05:39 20.7 16 19.5
003C4887 2019-03-13 18:33:22 20.7 16 19.7
003C4887 2019-03-13 18:01:05 20.8 16 19.8
003C4887 2019-03-13 17:28:14 20.8 16 19.8
003C4887 2019-03-13 16:55:59 20.9 16 19.9
003C4887 2019-03-13 16:23:40 20.9 16 20
003C4887 2019-03-13 15:51:24 20.8 16 20.1
003C4887 2019-03-13 15:19:09 20.8 16 20.3
003C4887 2019-03-13 14:46:52 20.8 16 20.3
003C4887 2019-03-13 14:14:36 20.8 16 20.4
003C4887 2019-03-13 13:42:20 20.7 16 18.6
003C4887 2019-03-13 13:10:03 20.7 16 18.8
003C4887 2019-03-13 12:37:46 20.8 16 19.2
003C4887 2019-03-13 12:05:30 20.7 16 19.3
003C4887 2019-03-13 11:33:14 20.7 16 19.7
003C4887 2019-03-13 11:00:58 20.6 16 19.5
003C4887 2019-03-13 10:28:42 20.6 16 19.7
003C4887 2019-03-13 09:56:27 20.5 16 19.7
003C4887 2019-03-13 09:24:11 20.3 15 19.7
003C4887 2019-03-13 08:51:56 20.2 15 19.8
003C4887 2019-03-13 08:19:39 20.2 15 20
003C4887 2019-03-13 07:47:21 20.2 15 20.1
003C4887 2019-03-13 07:15:03 20.2 15 20
003C4887 2019-03-13 06:42:45 20.3 15 20
003C4887 2019-03-13 06:10:27 20.2 15 20.1
003C4887 2019-03-13 05:38:08 20.3 16 19.9
003C4887 2019-03-13 05:05:52 20.3 16 19.8
003C4887 2019-03-13 04:33:34 20.3 16 19.6
003C4887 2019-03-13 04:01:17 20.3 16 19.5
003C4887 2019-03-13 03:29:00 20.3 16 19.6
003C4887 2019-03-13 02:56:42 20.3 16 19.4
003C4887 2019-03-13 02:24:25 20.3 16 20.9
003C4887 2019-03-13 01:52:08 20.4 16 22.1
003C4887 2019-03-13 01:19:50 20.4 16 21.9
003C4887 2019-03-13 00:47:34 20.4 16 21.8
003C4887 2019-03-13 00:15:18 20.4 16 21.8
003C4887 2019-03-12 23:43:00 20.4 16 21.7
003C4887 2019-03-12 23:10:43 20.4 16 21.4
003C4887 2019-03-12 22:38:26 20.4 16 21.4
003C4887 2019-03-12 22:06:09 20.5 16 21.4
003C4887 2019-03-12 21:33:53 20.5 16 22.5
003C4887 2019-03-12 21:01:37 20.5 16 23.3
003C4887 2019-03-12 20:29:21 20.5 16 24
003C4887 2019-03-12 19:57:04 20.5 16 24.6
003C4887 2019-03-12 19:24:46 20.6 16 25.2
003C4887 2019-03-12 18:52:30 20.6 16 25.6
003C4887 2019-03-12 18:20:14 20.6 16 26
003C4887 2019-03-12 17:47:58 20.6 16 26.4
003C4887 2019-03-12 17:15:47 20.6 16 26.7
003C4887 2019-03-12 16:43:25 20.6 16 27
003C4887 2019-03-12 16:11:08 20.6 16 27.4
003C4887 2019-03-12 15:38:51 20.6 16 27.7
003C4887 2019-03-12 15:06:33 20.6 16 27.9
003C4887 2019-03-12 14:33:47 20.6 16 28.4
003C4887 2019-03-12 14:01:29 20.6 16 28.7
003C4887 2019-03-12 13:29:13 20.6 16 28.7
003C4887 2019-03-12 12:56:57 20.5 16 28.7
003C4887 2019-03-12 12:24:43 20.5 16 28.9
003C4887 2019-03-12 11:52:24 20.5 16 29.1
003C4887 2019-03-12 11:20:08 20.5 16 29.3
003C4887 2019-03-12 10:47:51 20.4 16 29.5
003C4887 2019-03-12 10:15:34 20.3 16 29.7
003C4887 2019-03-12 09:43:18 20.3 16 29.9
003C4887 2019-03-12 09:11:01 20.2 15 30
003C4887 2019-03-12 08:38:43 20.2 15 30
003C4887 2019-03-12 08:06:27 20.2 16 30
003C4887 2019-03-12 07:34:12 20.2 16 30
003C4887 2019-03-12 07:01:56 20.2 16 30
003C4887 2019-03-12 06:29:41 20.3 16 30
003C4887 2019-03-12 05:57:25 20.2 16 30
003C4887 2019-03-12 05:25:09 20.3 16 29.8
003C4887 2019-03-12 04:52:55 20.3 16 29.7
003C4887 2019-03-12 04:20:38 20.3 16 29.5
003C4887 2019-03-12 03:48:21 20.3 16 29.3
003C4887 2019-03-12 03:16:04 20.3 16 29.1
003C4887 2019-03-12 02:43:47 20.3 16 28.9
003C4887 2019-03-12 02:11:32 20.3 16 28.6
003C4887 2019-03-12 01:39:16 20.4 16 28.4
003C4887 2019-03-12 01:07:00 20.4 16 28.2
003C4887 2019-03-12 00:34:45 20.4 16 28.2
003C4887 2019-03-12 00:02:28 20.4 16 27.9
003C4887 2019-03-11 23:30:14 20.4 16 27.6
003C4887 2019-03-11 22:57:58 20.4 16 27.3
003C4887 2019-03-11 22:25:43 20.5 16 27.1
003C4887 2019-03-11 21:53:27 20.5 16 26.7
003C4887 2019-03-11 21:21:11 20.5 16 26.3
003C4887 2019-03-11 20:48:55 20.5 16 25.9
003C4887 2019-03-11 20:16:39 20.6 16 25.5
003C4887 2019-03-11 19:44:22 20.6 16 25.1
003C4887 2019-03-11 19:12:05 20.6 16 24.5
003C4887 2019-03-11 18:39:48 20.6 16 23.9
003C4887 2019-03-11 18:07:31 20.7 16 23.3
003C4887 2019-03-11 17:35:15 20.7 16 22.6
003C4887 2019-03-11 17:02:58 20.7 16 21.6
003C4887 2019-03-11 16:30:42 20.7 17 21.6
003C4887 2019-03-11 15:58:25 20.6 17 21.8
003C4887 2019-03-11 15:26:09 20.6 17 21.9
003C4887 2019-03-11 14:53:53 20.5 17 22.1
003C4887 2019-03-11 14:21:36 20.5 17 22.1
003C4887 2019-03-11 13:49:19 20.5 17 22.2
003C4887 2019-03-11 13:17:03 20.4 17 22.2
003C4887 2019-03-11 12:44:49 20.4 17 22.3
003C4887 2019-03-11 12:12:33 20.4 17 23.2
003C4887 2019-03-11 11:39:45 20.4 17 22.5
003C4887 2019-03-11 11:07:32 20.3 17 22.5
003C4887 2019-03-11 10:35:17 20.4 17 22.4
003C4887 2019-03-11 10:03:00 20.3 17 22.4
003C4887 2019-03-11 09:30:46 20.3 17 22.4
003C4887 2019-03-11 08:58:31 20.2 18 22.5
003C4887 2019-03-11 08:26:16 20.2 18 22.5
003C4887 2019-03-11 07:54:01 20.2 18 22.4
003C4887 2019-03-11 07:21:45 20.2 18 22.4
003C4887 2019-03-11 06:49:29 20.3 18 22.4
003C4887 2019-03-11 06:17:14 20.3 18 22.5
003C4887 2019-03-11 05:45:00 20.3 18 22.4
003C4887 2019-03-11 05:12:43 20.3 18 22.3
003C4887 2019-03-11 04:40:28 20.3 19 22.2
003C4887 2019-03-11 04:08:12 20.3 19 22.2
003C4887 2019-03-11 03:35:56 20.3 19 21.1
003C4887 2019-03-11 03:03:40 20.3 19 21
003C4887 2019-03-11 02:31:24 20.3 19 20.9
003C4887 2019-03-11 01:59:07 20.3 19 20.8
003C4887 2019-03-11 01:26:51 20.3 19 20.8
003C4887 2019-03-11 00:54:35 20.3 19 21.9
003C4887 2019-03-11 00:22:21 20.4 19 21.9
003C4887 2019-03-10 23:50:05 20.4 20 21.8
003C4887 2019-03-10 23:17:50 20.4 20 20.7
003C4887 2019-03-10 22:45:35 20.4 20 20.4
003C4887 2019-03-10 22:13:19 20.4 20 20.4
003C4887 2019-03-10 21:41:03 20.4 20 20.2
003C4887 2019-03-10 21:08:46 20.4 20 20.3
003C4887 2019-03-10 20:36:30 20.5 20 20.4
003C4887 2019-03-10 20:04:13 20.5 20 20.3
003C4887 2019-03-10 19:31:56 20.5 20 20.2
003C4887 2019-03-10 18:59:36 20.6 20 20.4
003C4887 2019-03-10 18:27:19 20.5 21 21.7
003C4887 2019-03-10 17:55:02 20.6 21 21.7
003C4887 2019-03-10 17:22:44 20.6 21 21.9
003C4887 2019-03-10 16:50:25 20.6 21 21.9
003C4887 2019-03-10 16:18:08 20.5 21 22
003C4887 2019-03-10 15:45:49 20.5 22 22
003C4887 2019-03-10 15:13:33 20.5 22 22
003C4887 2019-03-10 14:41:16 20.5 23 21.9
003C4887 2019-03-10 14:08:58 20.5 23 21.9
003C4887 2019-03-10 13:36:41 20.5 24 21.8
003C4887 2019-03-10 13:04:23 20.4 24 21.8
003C4887 2019-03-10 12:32:08 20.4 24 21.7
003C4887 2019-03-10 11:59:50 20.4 24 21.8
003C4887 2019-03-10 11:27:33 20.4 24 20.5
003C4887 2019-03-10 10:55:18 20.4 24 20.6
003C4887 2019-03-10 10:23:01 20.4 24 20.7
003C4887 2019-03-10 09:50:47 20.4 24 20.5
003C4887 2019-03-10 09:18:30 20.4 24 20.6
003C4887 2019-03-10 08:45:41 20.4 24 20.7
003C4887 2019-03-10 08:13:26 20.4 24 20.8
003C4887 2019-03-10 07:41:10 20.4 24 20.9
003C4887 2019-03-10 07:08:52 20.4 24 21
003C4887 2019-03-10 06:36:35 20.4 24 21.1
003C4887 2019-03-10 06:04:18 20.4 24 21.2
003C4887 2019-03-10 05:32:02 20.4 24 19.6
003C4887 2019-03-10 04:59:43 20.4 24 19.5
003C4887 2019-03-10 04:27:26 20.4 24 19.3
003C4887 2019-03-10 03:55:10 20.4 24 18.9
003C4887 2019-03-10 03:22:54 20.4 24 19.1
003C4887 2019-03-10 02:50:39 20.4 24 19.1
003C4887 2019-03-10 02:18:23 20.5 24 19.1
003C4887 2019-03-10 01:46:07 20.5 24 19.2
003C4887 2019-03-10 01:13:52 20.5 24 19.3
003C4887 2019-03-10 00:41:37 20.5 24 19.5
003C4887 2019-03-10 00:09:22 20.5 24 19.6
003C4887 2019-03-09 23:37:08 20.5 24 19.5
003C4887 2019-03-09 23:04:55 20.5 24 19.6
003C4887 2019-03-09 22:32:37 20.5 23 19.9
003C4887 2019-03-09 22:00:21 20.5 23 19.8
003C4887 2019-03-09 21:28:05 20.5 23 20
003C4887 2019-03-09 20:55:49 20.5 23 20.1
003C4887 2019-03-09 20:23:33 20.5 23 20.3
003C4887 2019-03-09 19:51:18 20.6 23 20.5
003C4887 2019-03-09 19:19:04 20.6 23 20.6
003C4887 2019-03-09 18:46:50 20.6 23 21.8
003C4887 2019-03-09 18:14:34 20.6 23 21.7
003C4887 2019-03-09 17:42:20 20.6 23 21.6
003C4887 2019-03-09 17:10:04 20.7 23 21.4
003C4887 2019-03-09 16:37:49 20.7 23 21.2
003C4887 2019-03-09 16:05:34 20.6 23 21.2
003C4887 2019-03-09 15:33:19 20.6 24 21.1
003C4887 2019-03-09 15:01:05 20.6 24 21.1
003C4887 2019-03-09 14:28:50 20.6 24 21.1
003C4887 2019-03-09 13:56:35 20.6 24 21
003C4887 2019-03-09 13:24:19 20.5 24 21.1
003C4887 2019-03-09 12:52:06 20.5 24 21
003C4887 2019-03-09 12:19:51 20.5 24 20.8
003C4887 2019-03-09 11:47:35 20.5 24 20.7
003C4887 2019-03-09 11:15:19 20.5 24 20.7
003C4887 2019-03-09 10:43:03 20.5 24 20.6
003C4887 2019-03-09 10:10:48 20.4 24 20.8
003C4887 2019-03-09 09:38:33 20.5 24 20.7
003C4887 2019-03-09 09:06:17 20.5 25 20.5
003C4887 2019-03-09 08:34:00 20.5 25 20.5
003C4887 2019-03-09 08:01:44 20.5 25 20.4
003C4887 2019-03-09 07:29:27 20.5 25 20.2
003C4887 2019-03-09 06:57:12 20.5 25 20
003C4887 2019-03-09 06:24:56 20.5 26 19.6
003C4887 2019-03-09 05:52:07 20.5 26 19.6
003C4887 2019-03-09 05:19:51 20.5 26 19.5
003C4887 2019-03-09 04:47:34 20.6 26 21
003C4887 2019-03-09 04:15:20 20.6 26 21.1
003C4887 2019-03-09 03:43:00 20.6 26 21.3
003C4887 2019-03-09 03:10:44 20.6 26 21.3
003C4887 2019-03-09 02:38:28 20.6 26 21.4
003C4887 2019-03-09 02:06:14 20.6 26 21.5
003C4887 2019-03-09 01:33:56 20.7 26 22.5
003C4887 2019-03-09 01:01:43 20.7 26 22.7
003C4887 2019-03-09 00:29:26 20.7 26 22.6
003C4887 2019-03-08 23:57:09 20.7 26 22.8
003C4887 2019-03-08 23:24:54 20.7 26 22.8
003C4887 2019-03-08 22:52:39 20.8 26 22.8
003C4887 2019-03-08 22:20:23 20.8 26 22.8
003C4887 2019-03-08 21:48:06 20.8 27 22.9
003C4887 2019-03-08 21:15:50 20.8 27 22.9
003C4887 2019-03-08 20:43:34 20.8 26 22.9
003C4887 2019-03-08 20:11:19 20.9 26 22.9
003C4887 2019-03-08 19:39:03 20.9 27 22.9
003C4887 2019-03-08 19:06:46 20.9 27 23.2
003C4887 2019-03-08 18:34:28 20.9 27 23.2
003C4887 2019-03-08 18:02:11 21 26 23.2
003C4887 2019-03-08 17:29:55 21 26 23.3
003C4887 2019-03-08 16:57:37 21.1 27 22.6
003C4887 2019-03-08 16:25:22 21 27 22.6
003C4887 2019-03-08 15:53:07 21 27 22.8
003C4887 2019-03-08 15:20:51 20.9 26 21.8
003C4887 2019-03-08 14:48:37 20.9 26 21.9
003C4887 2019-03-08 14:16:23 20.9 26 22
003C4887 2019-03-08 13:44:08 20.8 26 22
003C4887 2019-03-08 13:11:53 20.8 26 22.1
003C4887 2019-03-08 12:39:38 20.8 26 22.2
003C4887 2019-03-08 12:07:21 20.7 25 21.1
003C4887 2019-03-08 11:35:05 20.7 25 20.9
003C4887 2019-03-08 11:02:48 20.7 25 21
003C4887 2019-03-08 10:30:30 20.6 25 20.8
003C4887 2019-03-08 09:58:13 20.6 24 20.9
003C4887 2019-03-08 09:25:56 20.6 24 21
003C4887 2019-03-08 08:53:37 20.6 24 21.2
003C4887 2019-03-08 08:21:20 20.6 24 21.1
003C4887 2019-03-08 07:49:02 20.6 23 21.1
003C4887 2019-03-08 07:16:45 20.6 23 21.1
003C4887 2019-03-08 06:44:29 20.6 23 21.2
003C4887 2019-03-08 06:12:12 20.6 23 21.2
003C4887 2019-03-08 05:39:57 20.6 23 22
003C4887 2019-03-08 05:07:41 20.6 23 21.9
003C4887 2019-03-08 04:35:25 20.6 23 22
003C4887 2019-03-08 04:03:09 20.6 23 21.8
003C4887 2019-03-08 03:30:54 20.6 23 21.7
003C4887 2019-03-08 02:58:06 20.6 22 21.6
003C4887 2019-03-08 02:25:52 20.6 22 21.6
003C4887 2019-03-08 01:53:38 20.6 22 21.4
003C4887 2019-03-08 01:21:25 20.7 22 21.1
003C4887 2019-03-08 00:49:08 20.6 22 21.1
003C4887 2019-03-08 00:16:54 20.6 22 22.1
003C4887 2019-03-07 23:44:39 20.7 22 21.9
003C4887 2019-03-07 23:12:24 20.7 22 21.9
003C4887 2019-03-07 22:40:10 20.7 22 21.9
003C4887 2019-03-07 22:07:56 20.7 22 21.8
003C4887 2019-03-07 21:35:41 20.8 22 21.8
003C4887 2019-03-07 21:03:26 20.8 22 21.8
003C4887 2019-03-07 20:31:10 20.8 22 21.6
003C4887 2019-03-07 19:58:55 20.8 22 21.5
003C4887 2019-03-07 19:26:40 20.9 21 21.4
003C4887 2019-03-07 18:54:26 20.9 21 21.4
003C4887 2019-03-07 18:22:09 21 21 21.6
003C4887 2019-03-07 17:49:54 21 21 21.6
003C4887 2019-03-07 17:17:39 21.1 21 21.8
003C4887 2019-03-07 16:45:25 21.1 21 20.5
003C4887 2019-03-07 16:13:10 21.1 21 20.7
003C4887 2019-03-07 15:40:55 21 21 20.7
003C4887 2019-03-07 15:08:39 21 20 20.8
003C4887 2019-03-07 14:36:23 21 20 20.9
003C4887 2019-03-07 14:04:05 20.9 19 21.1
003C4887 2019-03-07 13:31:48 20.9 19 21
003C4887 2019-03-07 12:59:31 20.8 19 21.1
003C4887 2019-03-07 12:27:15 20.8 18 21.1
003C4887 2019-03-07 11:54:58 20.8 18 21.4
003C4887 2019-03-07 11:22:43 20.8 18 21.5
003C4887 2019-03-07 10:50:29 20.7 17 20.1
003C4887 2019-03-07 10:18:13 20.6 17 20.4
003C4887 2019-03-07 09:45:57 20.6 16 20.3
003C4887 2019-03-07 09:13:42 20.6 16 20.4
003C4887 2019-03-07 08:41:24 20.6 16 20.4
003C4887 2019-03-07 08:09:09 20.6 15 20.3
003C4887 2019-03-07 07:36:54 20.6 15 20.3
003C4887 2019-03-07 07:04:40 20.6 15 20.6
003C4887 2019-03-07 06:32:23 20.6 14 20.9
003C4887 2019-03-07 06:00:07 20.6 14 21.1
003C4887 2019-03-07 05:27:52 20.6 14 21.1
003C4887 2019-03-07 04:55:36 20.6 14 20.8
003C4887 2019-03-07 04:23:21 20.6 14 20.6
003C4887 2019-03-07 03:51:04 20.6 13 20.5
003C4887 2019-03-07 03:18:49 20.6 13 20.5
003C4887 2019-03-07 02:46:34 20.6 13 20.3
003C4887 2019-03-07 02:14:19 20.6 13 20.2
003C4887 2019-03-07 01:42:05 20.6 13 21.5
003C4887 2019-03-07 01:09:50 20.6 13 21.4
003C4887 2019-03-07 00:37:34 20.6 13 21.4
003C4887 2019-03-07 00:04:45 20.6 13 21.4
003C4887 2019-03-06 23:32:29 20.6 12 21.3
003C4887 2019-03-06 23:00:13 20.6 12 21
003C4887 2019-03-06 22:27:57 20.6 12 20.9
003C4887 2019-03-06 21:55:42 20.6 12 21
003C4887 2019-03-06 21:23:28 20.6 12 20.9
003C4887 2019-03-06 20:51:13 20.6 12 21
003C4887 2019-03-06 20:18:56 20.7 12 21.1
003C4887 2019-03-06 19:46:40 20.7 12 21.4
003C4887 2019-03-06 19:14:23 20.7 12 21.6
003C4887 2019-03-06 18:42:06 20.8 12 21.6
003C4887 2019-03-06 18:09:49 20.8 12 21.5
003C4887 2019-03-06 17:37:34 20.8 12 21.5
003C4887 2019-03-06 17:05:14 20.8 12 21.5
003C4887 2019-03-06 16:32:57 20.8 12 21.6
003C4887 2019-03-06 16:00:40 20.8 11 21.7
003C4887 2019-03-06 15:28:24 20.8 11 22
003C4887 2019-03-06 14:56:07 20.7 12 22
003C4887 2019-03-06 14:23:51 20.6 11 22.1
003C4887 2019-03-06 13:51:35 20.6 11 22.3
003C4887 2019-03-06 13:19:19 20.5 11 22.5
003C4887 2019-03-06 12:47:04 20.5 11 21.6
003C4887 2019-03-06 12:14:48 20.5 12 21.7
003C4887 2019-03-06 11:42:32 20.5 12 21.7
003C4887 2019-03-06 11:10:17 20.5 12 21.8
003C4887 2019-03-06 10:38:02 20.4 12 21.9
003C4887 2019-03-06 10:05:47 20.4 12 22.1
003C4887 2019-03-06 09:33:31 20.3 12 22.1
003C4887 2019-03-06 09:01:16 20.3 12 23
003C4887 2019-03-06 08:29:00 20.3 12 23
003C4887 2019-03-06 07:56:43 20.4 12 23
003C4887 2019-03-06 07:24:27 20.4 12 23
003C4887 2019-03-06 06:52:10 20.4 13 23
003C4887 2019-03-06 06:19:53 20.4 13 22.8
003C4887 2019-03-06 05:47:37 20.4 13 22.7
003C4887 2019-03-06 05:15:19 20.4 13 22.5
003C4887 2019-03-06 04:43:04 20.4 13 22.5
003C4887 2019-03-06 04:10:47 20.4 13 22.3
003C4887 2019-03-06 03:38:29 20.5 13 22.4
003C4887 2019-03-06 03:06:13 20.5 13 22.3
003C4887 2019-03-06 02:33:57 20.5 13 22.3
003C4887 2019-03-06 02:01:40 20.5 13 22.1
003C4887 2019-03-06 01:29:26 20.6 13 21.9
003C4887 2019-03-06 00:57:11 20.6 13 21.8
003C4887 2019-03-06 00:24:55 20.6 13 21.6
003C4887 2019-03-05 23:52:40 20.6 14 21.3
003C4887 2019-03-05 23:20:24 20.7 14 21.1
003C4887 2019-03-05 22:48:09 20.7 14 21
003C4887 2019-03-05 22:15:53 20.7 14 21
003C4887 2019-03-05 21:43:35 21 14 20.9
003C4887 2019-03-05 21:42:21 20.8 14 20.9
003C4887 2019-03-05 21:10:04 20.8 14 20.7
003C4887 2019-03-05 20:37:47 20.8 14 20.9
003C4887 2019-03-05 20:05:32 20.8 14 19.2
003C4887 2019-03-05 19:33:16 20.8 14 19.5
003C4887 2019-03-05 19:01:01 20.8 14 19.3
003C4887 2019-03-05 18:28:46 20.8 14 19.4
003C4887 2019-03-05 17:56:31 20.9 14 19.4
003C4887 2019-03-05 17:24:13 20.9 15 19.4
003C4887 2019-03-05 16:51:57 20.9 15 21.1
003C4887 2019-03-05 16:19:41 20.8 15 21.1
003C4887 2019-03-05 15:47:27 20.7 16 21.3
003C4887 2019-03-05 15:15:09 20.6 16 21.4
003C4887 2019-03-05 14:42:52 20.6 16 21.1
003C4887 2019-03-05 14:10:35 20.5 17 21.2
003C4887 2019-03-05 13:38:18 20.5 17 21.2
003C4887 2019-03-05 13:06:02 20.5 17 21.2
003C4887 2019-03-05 12:33:45 20.4 17 22.4
003C4887 2019-03-05 12:01:29 20.4 17 22.4
003C4887 2019-03-05 11:29:14 20.4 17 22.6
003C4887 2019-03-05 10:56:57 20.4 17 22.6
003C4887 2019-03-05 10:24:41 20.4 18 22.6
003C4887 2019-03-05 09:52:24 20.4 18 22.7
003C4887 2019-03-05 09:20:08 20.4 18 22.6
003C4887 2019-03-05 08:47:53 20.4 18 22.6
003C4887 2019-03-05 08:15:37 20.4 18 22.4
003C4887 2019-03-05 07:43:22 20.4 18 22.6
003C4887 2019-03-05 07:11:07 20.4 19 22.5
003C4887 2019-03-05 06:38:52 20.4 19 22.5
003C4887 2019-03-05 06:06:36 20.4 19 22.3
003C4887 2019-03-05 05:34:20 20.4 19 22.3
003C4887 2019-03-05 05:02:05 20.4 19 22.3
003C4887 2019-03-05 04:29:50 20.5 19 22.4
003C4887 2019-03-05 03:57:34 20.4 19 22.3
003C4887 2019-03-05 03:25:19 20.5 18 21.2
003C4887 2019-03-05 02:53:03 20.4 18 21.3
003C4887 2019-03-05 02:20:47 20.4 18 21.2
003C4887 2019-03-05 01:48:30 20.5 18 21
003C4887 2019-03-05 01:16:15 20.4 18 20.9
003C4887 2019-03-05 00:43:59 20.4 18 20.8
003C4887 2019-03-05 00:11:41 20.5 18 20.7
003C4887 2019-03-04 23:39:26 20.4 18 20.8
003C4887 2019-03-04 23:07:09 20.5 18 19.2
003C4887 2019-03-04 22:34:52 20.5 18 19.2
003C4887 2019-03-04 22:02:35 20.5 18 18.8
003C4887 2019-03-04 21:30:17 20.5 18 18.7
003C4887 2019-03-04 20:57:59 20.5 18 18.7
003C4887 2019-03-04 20:25:42 20.5 18 18.5
003C4887 2019-03-04 19:53:25 20.5 18 18.5
003C4887 2019-03-04 19:21:06 20.4 18 18.5
003C4887 2019-03-04 18:48:17 20.4 18 18.5
003C4887 2019-03-04 18:16:00 20.5 18 18.1
003C4887 2019-03-04 17:43:43 20.4 18 18.4
003C4887 2019-03-04 17:11:27 20.4 18 18.2
003C4887 2019-03-04 16:39:10 20.4 18 18.6
003C4887 2019-03-04 16:06:55 20.4 18 18.6
003C4887 2019-03-04 15:34:40 20.4 17 18.7
003C4887 2019-03-04 15:02:25 20.4 17 18.8
003C4887 2019-03-04 14:30:09 20.3 17 18.9
003C4887 2019-03-04 13:57:52 20.3 17 18.8
003C4887 2019-03-04 13:25:36 20.2 17 18.7
003C4887 2019-03-04 12:53:20 20.2 17 18.7
003C4887 2019-03-04 12:21:01 20.2 17 18.7
003C4887 2019-03-04 11:48:45 20.1 17 18.7
003C4887 2019-03-04 11:16:30 20.1 17 18.8
003C4887 2019-03-04 10:44:13 20.1 17 18.8
003C4887 2019-03-04 10:11:56 20 17 18.6
003C4887 2019-03-04 09:39:39 20 17 18.5
003C4887 2019-03-04 09:07:23 20 17 18.5
003C4887 2019-03-04 08:35:07 19.9 17 18.3
003C4887 2019-03-04 08:02:51 20 17 18.5
003C4887 2019-03-04 07:30:35 20 18 18.5
003C4887 2019-03-04 06:58:19 20 18 18.5
003C4887 2019-03-04 06:26:01 20 18 18.9
003C4887 2019-03-04 05:53:43 20 18 19.2
003C4887 2019-03-04 05:21:25 20 18 19.1
003C4887 2019-03-04 04:49:07 20 17 19.4
003C4887 2019-03-04 04:16:50 20 17 19.4
003C4887 2019-03-04 03:44:34 20 17 19.4
003C4887 2019-03-04 03:12:18 20 17 19.5
003C4887 2019-03-04 02:40:04 20 17 19.6
003C4887 2019-03-04 02:07:49 20 17 19.5
003C4887 2019-03-04 01:35:34 20 17 20.8
003C4887 2019-03-04 01:03:17 20 17 20.9
003C4887 2019-03-04 00:31:00 20 17 21
003C4887 2019-03-03 23:58:43 20 17 20.9
003C4887 2019-03-03 23:26:25 20 17 21.1
003C4887 2019-03-03 22:54:09 20 17 21.1
003C4887 2019-03-03 22:21:52 20 17 21.3
003C4887 2019-03-03 21:49:33 20 17 21.3
003C4887 2019-03-03 21:17:15 20 17 21.3
003C4887 2019-03-03 20:44:57 20.1 17 21.5
003C4887 2019-03-03 20:12:40 20 18 21.7
003C4887 2019-03-03 19:40:23 20.1 18 21.7
003C4887 2019-03-03 19:08:04 20.1 18 21.8
003C4887 2019-03-03 18:35:45 20.1 18 21.9
003C4887 2019-03-03 18:03:26 20.1 18 22
003C4887 2019-03-03 17:31:08 20.1 18 22
003C4887 2019-03-03 16:58:49 20.2 18 21.8
003C4887 2019-03-03 16:26:31 20.1 18 21.9
003C4887 2019-03-03 15:53:41 20.1 18 22.1
003C4887 2019-03-03 15:21:24 20.1 18 22.1
003C4887 2019-03-03 14:49:07 20.1 18 22.2
003C4887 2019-03-03 14:16:50 20.1 18 22.2
003C4887 2019-03-03 13:44:33 20.1 18 22.2
003C4887 2019-03-03 13:12:16 20.1 18 22.1
003C4887 2019-03-03 12:40:01 20.1 18 21.2
003C4887 2019-03-03 12:07:45 20.1 18 21.1
003C4887 2019-03-03 11:35:30 20.1 18 21.1
003C4887 2019-03-03 11:03:15 20.1 18 21.3
003C4887 2019-03-03 10:31:01 20.1 18 21.4
003C4887 2019-03-03 09:58:46 20.1 18 21.3
003C4887 2019-03-03 09:26:31 20.2 18 21.1
003C4887 2019-03-03 08:54:15 20.1 18 21.4
003C4887 2019-03-03 08:21:58 20.2 18 21.5
003C4887 2019-03-03 07:49:43 20.2 18 21.3
003C4887 2019-03-03 07:17:25 20.2 18 21.2
003C4887 2019-03-03 06:45:09 20.2 18 21.3
003C4887 2019-03-03 06:12:52 20.2 18 21.2
003C4887 2019-03-03 05:40:35 20.2 18 21
003C4887 2019-03-03 05:08:19 20.2 18 20.9
003C4887 2019-03-03 04:36:02 20.2 18 20.8
003C4887 2019-03-03 04:03:46 20.2 18 20.8
003C4887 2019-03-03 03:31:30 20.2 18 20.6
003C4887 2019-03-03 02:59:12 20.2 18 20.5
003C4887 2019-03-03 02:26:54 20.3 18 20.2
003C4887 2019-03-03 01:54:36 20.3 18 20.1
003C4887 2019-03-03 01:22:18 20.3 18 19.9
003C4887 2019-03-03 00:50:01 20.3 18 19.5
003C4887 2019-03-03 00:17:44 20.3 18 19.3
003C4887 2019-03-02 23:45:28 20.3 18 19.6
003C4887 2019-03-02 23:13:14 20.3 18 19.4
003C4887 2019-03-02 22:40:57 20.3 17 19.3
003C4887 2019-03-02 22:08:42 20.3 17 19.5
003C4887 2019-03-02 21:36:25 20.3 17 19.4
003C4887 2019-03-02 21:04:08 20.4 17 19.4
003C4887 2019-03-02 20:31:52 20.3 17 19.7
003C4887 2019-03-02 19:59:35 20.4 17 19.7
003C4887 2019-03-02 19:27:18 20.4 17 19.9
003C4887 2019-03-02 18:55:01 20.4 17 19.9
003C4887 2019-03-02 18:22:45 20.5 17 20
003C4887 2019-03-02 17:50:28 20.4 17 20.4
003C4887 2019-03-02 17:18:11 20.4 17 20.2
003C4887 2019-03-02 16:45:57 20.4 17 20.2
003C4887 2019-03-02 16:13:38 20.4 17 20.4
003C4887 2019-03-02 15:41:23 20.4 17 20.5
003C4887 2019-03-02 15:09:09 20.4 16 20.7
003C4887 2019-03-02 14:36:51 20.3 16 20.8
003C4887 2019-03-02 14:04:35 20.3 16 20.8
003C4887 2019-03-02 13:32:20 20.3 16 20.8
003C4887 2019-03-02 12:59:32 20.3 16 21.1
003C4887 2019-03-02 12:27:16 20.3 16 21.2
003C4887 2019-03-02 11:55:00 20.3 16 21.3
003C4887 2019-03-02 11:22:44 20.3 16 21.2
003C4887 2019-03-02 10:50:28 20.3 16 21.2
003C4887 2019-03-02 10:18:11 20.3 16 21.5
003C4887 2019-03-02 09:45:55 20.3 15 21.5
003C4887 2019-03-02 09:13:37 20.3 15 21.6
003C4887 2019-03-02 08:41:20 20.3 15 21.6
003C4887 2019-03-02 08:09:03 20.3 15 21.5
003C4887 2019-03-02 07:36:48 20.3 15 21.7
003C4887 2019-03-02 07:04:32 20.4 15 21.4
003C4887 2019-03-02 06:32:17 20.4 15 22.4
003C4887 2019-03-02 06:00:01 20.4 15 22.4
003C4887 2019-03-02 05:27:45 20.4 15 22.1
003C4887 2019-03-02 04:55:29 20.4 15 22.3
003C4887 2019-03-02 04:23:13 20.4 15 23.2
003C4887 2019-03-02 03:50:57 20.4 14 23
003C4887 2019-03-02 03:18:42 20.5 14 23.8
003C4887 2019-03-02 02:46:27 20.5 14 23.7
003C4887 2019-03-02 02:14:10 20.5 14 23.6
003C4887 2019-03-02 01:41:53 20.6 14 23.6
003C4887 2019-03-02 01:09:36 20.6 14 23.6
003C4887 2019-03-02 00:37:19 20.7 14 23.5
003C4887 2019-03-02 00:05:01 20.7 14 23.4
003C4887 2019-03-01 23:32:46 20.7 14 23.3
003C4887 2019-03-01 23:00:29 20.8 14 23.3
003C4887 2019-03-01 22:28:13 20.8 14 23.3
003C4887 2019-03-01 21:55:57 20.9 14 23.3
003C4887 2019-03-01 21:23:40 20.9 14 23.1
003C4887 2019-03-01 20:51:22 20.9 14 23
003C4887 2019-03-01 20:19:02 20.9 14 22.9
003C4887 2019-03-01 19:46:43 20.9 13 22.8
003C4887 2019-03-01 19:14:24 20.9 13 22.5
003C4887 2019-03-01 18:42:06 21 14 22.4
003C4887 2019-03-01 18:09:50 21 14 22.4
003C4887 2019-03-01 17:37:33 21.1 14 22.4
003C4887 2019-03-01 17:05:16 21.1 14 21.3
003C4887 2019-03-01 16:32:58 21.1 15 21.2
003C4887 2019-03-01 16:00:39 21 15 21.2
003C4887 2019-03-01 15:28:21 20.9 15 21
003C4887 2019-03-01 14:56:04 20.8 15 19.4
003C4887 2019-03-01 14:23:49 20.8 15 19.7
003C4887 2019-03-01 13:51:31 20.8 16 17.5
003C4887 2019-03-01 13:19:14 20.7 16 17.6
003C4887 2019-03-01 12:46:56 20.7 16 17.6
003C4887 2019-03-01 12:14:39 20.7 17 17.7
003C4887 2019-03-01 11:42:20 20.7 17 17.8
003C4887 2019-03-01 11:10:03 20.7 17 17.9
003C4887 2019-03-01 10:37:45 20.6 17 18
003C4887 2019-03-01 10:04:54 20.5 17 18.6
003C4887 2019-03-01 09:32:38 20.4 17 18.5
003C4887 2019-03-01 09:00:20 20.4 18 18.8
003C4887 2019-03-01 08:28:05 20.4 18 18.7
003C4887 2019-03-01 07:55:47 20.5 19 18.6
003C4887 2019-03-01 07:23:30 20.5 19 20.5
003C4887 2019-03-01 06:51:14 20.5 19 20.6
003C4887 2019-03-01 06:18:55 20.5 19 21
003C4887 2019-03-01 05:46:39 20.5 19 21.2
003C4887 2019-03-01 05:14:21 20.5 20 21
003C4887 2019-03-01 04:42:05 20.5 20 20.9
003C4887 2019-03-01 04:09:48 20.6 20 20.8
003C4887 2019-03-01 03:37:31 20.6 20 20.9
003C4887 2019-03-01 03:05:14 20.6 21 20.9
003C4887 2019-03-01 02:32:56 20.6 21 20.9
003C4887 2019-03-01 02:00:38 20.6 21 21
003C4887 2019-03-01 01:28:22 20.6 21 20.8
003C4887 2019-03-01 00:56:05 20.6 22 20.8
003C4887 2019-03-01 00:23:49 20.7 22 20.8
003C4887 2019-02-28 23:51:34 20.7 22 20.8
003C4887 2019-02-28 23:19:16 20.7 22 20.8
003C4887 2019-02-28 22:47:00 20.8 23 20.7
003C4887 2019-02-28 22:14:44 20.8 23 20.6
003C4887 2019-02-28 21:42:30 20.8 23 20.7
003C4887 2019-02-28 21:10:14 20.8 23 20.7
003C4887 2019-02-28 20:37:59 20.9 23 20.4
003C4887 2019-02-28 20:05:42 20.9 24 21.7
003C4887 2019-02-28 19:33:27 20.9 24 21.5
003C4887 2019-02-28 19:01:09 21 24 21.7
003C4887 2019-02-28 18:28:53 21.1 24 21.7
003C4887 2019-02-28 17:56:37 21.1 25 20.6
003C4887 2019-02-28 17:24:22 21.2 25 20.5
003C4887 2019-02-28 16:52:06 21.2 26 20.2
003C4887 2019-02-28 16:19:51 21.2 26 20
003C4887 2019-02-28 15:47:36 21.1 26 20.2
003C4887 2019-02-28 15:15:21 21.1 25 20.1
003C4887 2019-02-28 14:43:09 21.1 25 20.1
003C4887 2019-02-28 14:10:52 21.1 25 20.1
003C4887 2019-02-28 13:38:37 21.1 25 20.2
003C4887 2019-02-28 13:06:21 21.1 25 20.5
003C4887 2019-02-28 12:34:04 21 24 20.5
003C4887 2019-02-28 12:01:48 20.9 24 20.6
003C4887 2019-02-28 11:29:30 20.9 24 20.7
003C4887 2019-02-28 10:57:12 20.8 24 20.5
003C4887 2019-02-28 10:24:54 20.7 23 20.5
003C4887 2019-02-28 09:52:35 20.7 23 20.5
003C4887 2019-02-28 09:20:18 20.7 22 20.7
003C4887 2019-02-28 08:48:00 20.7 22 20.7
003C4887 2019-02-28 08:15:42 20.6 22 21.9
003C4887 2019-02-28 07:43:25 20.7 22 21.9
003C4887 2019-02-28 07:10:42 20.7 22 20.7
003C4887 2019-02-28 06:38:25 20.7 22 20.7
003C4887 2019-02-28 06:06:08 20.7 22 20.5
003C4887 2019-02-28 05:33:51 20.7 22 20.7
003C4887 2019-02-28 05:01:34 20.7 22 20.6
003C4887 2019-02-28 04:29:17 20.7 22 20.6
003C4887 2019-02-28 03:57:00 20.7 22 20.5
003C4887 2019-02-28 03:24:42 20.7 22 20.4
003C4887 2019-02-28 02:52:25 20.7 22 20.4
003C4887 2019-02-28 02:20:07 20.7 22 20.4
003C4887 2019-02-28 01:47:50 20.8 22 20.4
003C4887 2019-02-28 01:15:33 20.8 22 20.4
003C4887 2019-02-28 00:43:16 20.8 22 20.5
003C4887 2019-02-28 00:10:59 20.8 22 20.2
003C4887 2019-02-27 23:38:41 20.9 23 20
003C4887 2019-02-27 23:06:23 20.9 23 19.9
003C4887 2019-02-27 22:34:10 20.9 23 20
003C4887 2019-02-27 22:01:51 21 23 20.1
003C4887 2019-02-27 21:29:34 21 23 20.1
003C4887 2019-02-27 20:57:19 21.1 23 20.2
003C4887 2019-02-27 20:25:00 21.1 23 20
003C4887 2019-02-27 19:52:43 21.2 24 20.1
003C4887 2019-02-27 19:20:27 21.2 24 18.2
003C4887 2019-02-27 18:48:11 21.3 24 18.2
003C4887 2019-02-27 18:15:54 21.4 24 18.4
003C4887 2019-02-27 17:43:37 21.4 25 18.3
003C4887 2019-02-27 17:11:20 21.5 25 18.2
003C4887 2019-02-27 16:39:04 21.4 26 18.3
003C4887 2019-02-27 16:06:47 21.4 26 18
003C4887 2019-02-27 15:34:32 21.3 26 17.8
003C4887 2019-02-27 15:02:16 21.3 26 17.8
003C4887 2019-02-27 14:29:59 21.2 26 17.8
003C4887 2019-02-27 13:57:42 21.1 25 18
003C4887 2019-02-27 13:25:26 21.1 25 17.8
003C4887 2019-02-27 12:53:09 21 25 17.9
003C4887 2019-02-27 12:20:53 21 25 17.9
003C4887 2019-02-27 11:48:36 21 25 17.8
003C4887 2019-02-27 11:16:19 21 25 19.7
003C4887 2019-02-27 10:44:02 20.9 25 19.8
003C4887 2019-02-27 10:11:46 20.8 24 19.8
003C4887 2019-02-27 09:39:30 20.8 24 21.3
003C4887 2019-02-27 09:07:15 20.8 24 21.2
003C4887 2019-02-27 08:34:58 20.8 23 21.2
003C4887 2019-02-27 08:02:41 20.8 23 21.3
003C4887 2019-02-27 07:30:25 20.8 23 21.2
003C4887 2019-02-27 06:58:07 20.8 23 21.2
003C4887 2019-02-27 06:25:52 20.8 23 21.1
003C4887 2019-02-27 05:53:36 20.9 23 21
003C4887 2019-02-27 05:21:19 20.9 23 21
003C4887 2019-02-27 04:49:03 20.9 23 20.8
003C4887 2019-02-27 04:16:13 20.9 23 20.7
003C4887 2019-02-27 03:43:56 20.9 23 20.7
003C4887 2019-02-27 03:11:40 21 23 20.8
003C4887 2019-02-27 02:39:23 21 23 20.8
003C4887 2019-02-27 02:07:06 21 23 20.9
003C4887 2019-02-27 01:34:49 21 23 21
003C4887 2019-02-27 01:02:32 21.1 23 21
003C4887 2019-02-27 00:30:16 21.1 24 22.1
003C4887 2019-02-26 23:57:59 21.2 24 22.1
003C4887 2019-02-26 23:25:42 21.2 24 22.1
003C4887 2019-02-26 22:53:25 21.3 24 22.1
003C4887 2019-02-26 22:21:08 21.3 24 22.1
003C4887 2019-02-26 21:48:51 21.4 24 23
003C4887 2019-02-26 21:16:34 21.4 24 23.8
003C4887 2019-02-26 20:44:16 21.4 24 23.8
003C4887 2019-02-26 20:11:59 21.5 24 24.4
003C4887 2019-02-26 19:39:42 21.5 24 25
003C4887 2019-02-26 19:07:26 21.6 24 25.5
003C4887 2019-02-26 18:35:10 21.6 24 25.9
003C4887 2019-02-26 18:02:53 21.7 24 26.3
003C4887 2019-02-26 17:30:37 21.7 24 26.7
003C4887 2019-02-26 16:58:22 21.7 25 27
003C4887 2019-02-26 16:26:07 21.6 25 27.4
003C4887 2019-02-26 15:53:53 21.5 25 27.7
003C4887 2019-02-26 15:21:37 21.4 25 27.9
003C4887 2019-02-26 14:49:21 21.4 24 28.2
003C4887 2019-02-26 14:17:05 21.4 24 28.5
003C4887 2019-02-26 13:44:49 21.3 24 28.7
003C4887 2019-02-26 13:12:33 21.3 25 28.9
003C4887 2019-02-26 12:40:16 21.3 25 29.1
003C4887 2019-02-26 12:08:00 21.2 25 29.3
003C4887 2019-02-26 11:35:42 21.1 24 29.5
003C4887 2019-02-26 11:03:26 21 24 29.5
003C4887 2019-02-26 10:31:09 20.9 24 29.7
003C4887 2019-02-26 09:58:53 20.9 23 29.8
003C4887 2019-02-26 09:26:36 20.8 23 30
003C4887 2019-02-26 08:54:19 20.8 23 30
003C4887 2019-02-26 08:22:03 20.8 23 30
003C4887 2019-02-26 07:49:49 20.8 22 30
003C4887 2019-02-26 07:17:33 20.8 22 30
003C4887 2019-02-26 06:45:17 20.8 22 30
003C4887 2019-02-26 06:13:00 20.8 22 30
003C4887 2019-02-26 05:40:46 20.8 22 30
003C4887 2019-02-26 05:08:29 20.8 22 30
003C4887 2019-02-26 04:36:14 20.9 22 30
003C4887 2019-02-26 04:03:58 20.9 22 29.8
003C4887 2019-02-26 03:31:41 20.9 22 29.7
003C4887 2019-02-26 02:59:23 20.9 22 29.5
003C4887 2019-02-26 02:27:06 20.9 22 29.3
003C4887 2019-02-26 01:54:49 21 22 29.1
003C4887 2019-02-26 01:21:59 21 21 28.7
003C4887 2019-02-26 00:49:42 21 21 28.5
003C4887 2019-02-26 00:17:25 21 21 28.2
003C4887 2019-02-25 23:45:09 21.1 21 28
003C4887 2019-02-25 23:12:53 21.1 21 27.8
003C4887 2019-02-25 22:40:36 21.2 21 27.5
003C4887 2019-02-25 22:08:20 21.2 21 27.2
003C4887 2019-02-25 21:36:03 21.3 21 26.9
003C4887 2019-02-25 21:03:45 21.3 21 26.6
003C4887 2019-02-25 20:31:29 21.3 21 26.2
003C4887 2019-02-25 19:59:13 21.4 21 25.8
003C4887 2019-02-25 19:26:57 21.4 21 25.3
003C4887 2019-02-25 18:54:38 21.5 21 25
003C4887 2019-02-25 18:22:23 21.5 22 24.5
003C4887 2019-02-25 17:50:08 21.5 22 23.8
003C4887 2019-02-25 17:17:51 21.5 22 23.1
003C4887 2019-02-25 16:45:35 21.5 22 22.3
003C4887 2019-02-25 16:13:19 21.5 22 21.1
003C4887 2019-02-25 15:41:03 21.4 23 19.8
003C4887 2019-02-25 15:08:47 21.3 23 19.8
003C4887 2019-02-25 14:36:31 21.3 23 19.6
003C4887 2019-02-25 14:04:16 21.2 23 19.6
003C4887 2019-02-25 13:31:59 21.1 22 19.7
003C4887 2019-02-25 12:59:45 21 22 20
003C4887 2019-02-25 12:27:25 20.9 22 20.1
003C4887 2019-02-25 11:55:09 20.9 23 20.2
003C4887 2019-02-25 11:22:54 20.8 23 20
003C4887 2019-02-25 10:50:39 20.7 23 20
003C4887 2019-02-25 10:18:22 20.6 22 20.1
003C4887 2019-02-25 09:46:06 20.6 22 20.5
003C4887 2019-02-25 09:13:50 20.5 22 20.7
003C4887 2019-02-25 08:41:32 20.5 22 21.1
003C4887 2019-02-25 08:09:15 20.5 22 20.7
003C4887 2019-02-25 07:36:58 20.5 22 21
003C4887 2019-02-25 07:04:40 20.5 22 21.2
003C4887 2019-02-25 06:32:24 20.6 22 21.2
003C4887 2019-02-25 06:00:08 20.5 22 21
003C4887 2019-02-25 05:27:52 20.6 22 21
003C4887 2019-02-25 04:55:35 20.6 22 21.3
003C4887 2019-02-25 04:23:17 20.6 22 21.3
003C4887 2019-02-25 03:51:00 20.6 22 21.6
003C4887 2019-02-25 03:18:43 20.6 22 21.6
003C4887 2019-02-25 02:46:27 20.6 22 22.5
003C4887 2019-02-25 02:14:11 20.6 23 22.5
003C4887 2019-02-25 01:41:53 20.6 23 22.5
003C4887 2019-02-25 01:09:37 20.6 23 22.5
003C4887 2019-02-25 00:37:22 20.6 23 22.4
003C4887 2019-02-25 00:05:06 20.6 23 22.6
003C4887 2019-02-24 23:32:49 20.6 23 22.5
003C4887 2019-02-24 23:00:34 20.7 23 22.6
003C4887 2019-02-24 22:27:47 20.7 23 22.8
003C4887 2019-02-24 21:55:32 20.7 23 23
003C4887 2019-02-24 21:23:17 20.7 23 22.9
003C4887 2019-02-24 20:51:01 20.7 23 22.7
003C4887 2019-02-24 20:18:45 20.7 23 22.7
003C4887 2019-02-24 19:46:29 20.7 23 22.5
003C4887 2019-02-24 19:14:14 20.7 23 22.7
003C4887 2019-02-24 18:42:00 20.7 23 22.6
003C4887 2019-02-24 18:09:44 20.7 22 22.6
003C4887 2019-02-24 17:37:30 20.7 22 22.7
003C4887 2019-02-24 17:05:15 20.7 22 22.6
003C4887 2019-02-24 16:32:59 20.7 22 22.5
003C4887 2019-02-24 16:00:44 20.7 22 22.5
003C4887 2019-02-24 15:28:29 20.7 22 22.4
003C4887 2019-02-24 14:56:13 20.7 22 22.3
003C4887 2019-02-24 14:23:57 20.7 22 22.3
003C4887 2019-02-24 13:51:42 20.7 22 21.2
003C4887 2019-02-24 13:19:26 20.7 22 21.4
003C4887 2019-02-24 12:47:10 20.7 22 21.7
003C4887 2019-02-24 12:14:54 20.7 21 21.6
003C4887 2019-02-24 11:42:38 20.7 21 21.9
003C4887 2019-02-24 11:10:22 20.7 21 21.7
003C4887 2019-02-24 10:38:06 20.7 21 21.8
003C4887 2019-02-24 10:05:51 20.7 21 21.6
003C4887 2019-02-24 09:33:38 20.7 21 21.5
003C4887 2019-02-24 09:01:21 20.7 21 21.4
003C4887 2019-02-24 08:29:05 20.7 21 21
003C4887 2019-02-24 07:56:49 20.7 21 21.2
003C4887 2019-02-24 07:24:31 20.7 21 21
003C4887 2019-02-24 06:52:15 20.7 21 20.9
003C4887 2019-02-24 06:19:59 20.7 21 21
003C4887 2019-02-24 05:47:43 20.8 21 20.7
003C4887 2019-02-24 05:15:29 20.8 21 20.9
003C4887 2019-02-24 04:43:12 20.8 20 20.7
003C4887 2019-02-24 04:10:57 20.8 20 21
003C4887 2019-02-24 03:38:42 20.8 20 21.1
003C4887 2019-02-24 03:06:25 20.8 20 21.2
003C4887 2019-02-24 02:34:08 20.9 20 21
003C4887 2019-02-24 02:01:51 20.9 20 21
003C4887 2019-02-24 01:29:33 20.9 20 21
003C4887 2019-02-24 00:57:17 20.9 20 21.1
003C4887 2019-02-24 00:25:00 20.9 19 21.2
003C4887 2019-02-23 23:52:44 20.9 19 21
003C4887 2019-02-23 23:20:27 21 19 20.8
003C4887 2019-02-23 22:48:10 21 19 20.7
003C4887 2019-02-23 22:15:54 21 19 20.6
003C4887 2019-02-23 21:43:37 21 19 20.4
003C4887 2019-02-23 21:11:22 21.1 18 20.3
003C4887 2019-02-23 20:39:07 21.1 18 20.4
003C4887 2019-02-23 20:06:51 21.1 18 20.4
003C4887 2019-02-23 19:34:00 21.1 18 20.9
003C4887 2019-02-23 19:01:45 21.2 18 21.1
003C4887 2019-02-23 18:29:29 21.2 17 21.1
003C4887 2019-02-23 17:57:12 21.2 17 21.3
003C4887 2019-02-23 17:24:55 21.1 17 21.4
003C4887 2019-02-23 16:52:38 21.1 17 21.6
003C4887 2019-02-23 16:20:22 21 17 21.3
003C4887 2019-02-23 15:48:06 21 17 21.4
003C4887 2019-02-23 15:15:50 20.9 16 21.2
003C4887 2019-02-23 14:43:36 20.8 16 20.9
003C4887 2019-02-23 14:11:21 20.8 16 20.9
003C4887 2019-02-23 13:39:06 20.8 15 21.1
003C4887 2019-02-23 13:06:54 20.8 15 21.2
003C4887 2019-02-23 12:34:38 20.8 15 21.2
003C4887 2019-02-23 12:02:19 20.8 15 21.2
003C4887 2019-02-23 11:30:02 20.8 15 21
003C4887 2019-02-23 10:57:46 20.8 15 21.1
003C4887 2019-02-23 10:25:35 20.8 14 21.1
003C4887 2019-02-23 09:53:19 20.8 14 21.1
003C4887 2019-02-23 09:21:01 20.8 14 21
003C4887 2019-02-23 08:48:45 20.8 14 21.1
003C4887 2019-02-23 08:16:29 20.8 14 21.3
003C4887 2019-02-23 07:44:12 20.8 13 21.2
003C4887 2019-02-23 07:11:57 20.7 13 21.1
003C4887 2019-02-23 06:39:42 20.7 13 21.1
003C4887 2019-02-23 06:07:28 20.8 13 20.7
003C4887 2019-02-23 05:35:12 20.8 13 20.5
003C4887 2019-02-23 05:02:57 20.8 13 20.6
003C4887 2019-02-23 04:30:39 20.8 13 20.4
003C4887 2019-02-23 03:58:22 20.8 12 20.4
003C4887 2019-02-23 03:26:05 20.7 12 20.1
003C4887 2019-02-23 02:53:49 20.8 12 20.1
003C4887 2019-02-23 02:21:33 20.8 12 19.9
003C4887 2019-02-23 01:49:17 20.8 12 19.8
003C4887 2019-02-23 01:17:01 20.8 12 19.7
003C4887 2019-02-23 00:44:46 20.8 12 19.6
003C4887 2019-02-23 00:12:30 20.8 12 19.6
003C4887 2019-02-22 23:40:13 20.9 12 19.3
003C4887 2019-02-22 23:07:57 20.9 12 19.2
003C4887 2019-02-22 22:35:41 20.9 12 19
003C4887 2019-02-22 22:03:25 20.9 12 19.1
003C4887 2019-02-22 21:31:09 21 11 18.9
003C4887 2019-02-22 20:58:52 21 12 19
003C4887 2019-02-22 20:26:34 21 12 19.1
003C4887 2019-02-22 19:54:18 21 12 19
003C4887 2019-02-22 19:22:02 21.1 12 18.7
003C4887 2019-02-22 18:49:45 21.1 12 18.8
003C4887 2019-02-22 18:17:28 21.1 12 18.8
003C4887 2019-02-22 17:45:12 21.1 12 19.1
003C4887 2019-02-22 17:12:55 21.1 12 19.2
003C4887 2019-02-22 16:40:06 21 12 19.2
003C4887 2019-02-22 16:07:47 21 12 19.1
003C4887 2019-02-22 15:35:32 20.9 12 18.8
003C4887 2019-02-22 15:03:15 20.8 12 18.5
003C4887 2019-02-22 14:30:59 20.8 12 18.4
003C4887 2019-02-22 13:58:43 20.7 12 18.4
003C4887 2019-02-22 13:26:27 20.7 12 18.6
003C4887 2019-02-22 12:54:11 20.6 13 18.6
003C4887 2019-02-22 12:21:54 20.6 13 18.7
003C4887 2019-02-22 11:49:39 20.5 13 18.9
003C4887 2019-02-22 11:17:20 20.5 13 19.2
003C4887 2019-02-22 10:45:01 20.4 13 20.9
003C4887 2019-02-22 10:12:42 20.4 13 20.9
003C4887 2019-02-22 09:40:22 20.4 13 20.9
003C4887 2019-02-22 09:08:05 20.3 13 20.9
003C4887 2019-02-22 08:35:48 20.4 13 20.9
003C4887 2019-02-22 08:03:28 20.4 13 20.9
003C4887 2019-02-22 07:31:10 20.4 13 20.9
003C4887 2019-02-22 06:58:51 20.4 13 20.9
003C4887 2019-02-22 06:26:33 20.4 13 20.9
003C4887 2019-02-22 05:54:15 20.4 13 20.7
003C4887 2019-02-22 05:21:57 20.4 13 20.7
003C4887 2019-02-22 04:49:39 20.5 13 20.4
003C4887 2019-02-22 04:17:22 20.5 13 20.2
003C4887 2019-02-22 03:45:04 20.5 13 21.5
003C4887 2019-02-22 03:12:46 20.5 13 22.5
003C4887 2019-02-22 02:40:28 20.5 13 23.3
003C4887 2019-02-22 02:08:10 20.5 13 24
003C4887 2019-02-22 01:35:53 20.6 13 24.6
003C4887 2019-02-22 01:03:36 20.6 13 24.6
003C4887 2019-02-22 00:31:20 20.6 13 24.6
003C4887 2019-02-21 23:58:59 20.6 13 24.5
003C4887 2019-02-21 23:26:40 20.7 13 24.5
003C4887 2019-02-21 22:54:20 20.7 13 24.5
003C4887 2019-02-21 22:22:03 20.7 14 24.4
003C4887 2019-02-21 21:49:44 20.7 14 24.3
003C4887 2019-02-21 21:17:25 20.8 14 23.6
003C4887 2019-02-21 20:45:06 20.8 14 23.6
003C4887 2019-02-21 20:12:49 20.9 14 23.5
003C4887 2019-02-21 19:40:29 20.9 14 23.5
003C4887 2019-02-21 19:08:11 20.9 14 23.5
003C4887 2019-02-21 18:35:52 21 14 23.4
003C4887 2019-02-21 18:03:34 21 14 24.1
003C4887 2019-02-21 17:31:15 21 14 24.1
003C4887 2019-02-21 16:58:57 20.9 14 24.1
003C4887 2019-02-21 16:26:40 20.8 14 24.1
003C4887 2019-02-21 15:22:07 20.6 14 24.1
003C4887 2019-02-21 14:17:31 20.8 15 24.1
003C4887 2019-02-21 14:16:14 20.6 15 24.1
003C4887 2019-02-21 13:43:57 20.5 15 23.3
003C4887 2019-02-21 13:11:39 20.5 15 22.4
003C4887 2019-02-21 12:39:21 20.5 16 21.4
003C4887 2019-02-21 12:07:02 20.5 16 19.9
003C4887 2019-02-21 11:34:44 20.5 17 17.7
003C4887 2019-02-21 11:02:28 20.5 17 17.7
003C4887 2019-02-21 10:30:11 20.5 17 17.8
003C4887 2019-02-21 09:57:56 20.5 17 17.8
003C4887 2019-02-21 09:25:38 20.5 17 17.9
003C4887 2019-02-21 08:53:17 20.5 18 18
003C4887 2019-02-21 07:48:38 20.6 18 18.2
003C4887 2019-02-21 07:16:19 20.6 18 18.4
003C4887 2019-02-21 06:44:02 20.6 19 18.4
003C4887 2019-02-21 06:11:46 20.6 19 18.4
003C4887 2019-02-21 05:39:30 20.6 19 18.3
003C4887 2019-02-21 05:07:11 20.6 19 18.4
003C4887 2019-02-21 04:34:52 20.6 19 18.4
003C4887 2019-02-21 04:02:32 20.6 19 18.4
003C4887 2019-02-21 03:30:14 20.6 19 14.7
003C4887 2019-02-21 02:57:56 20.7 19 14.6
003C4887 2019-02-21 02:25:40 20.6 20 14.5
003C4887 2019-02-21 01:53:24 20.7 20 14.3
003C4887 2019-02-21 01:21:07 20.7 20 18.2
003C4887 2019-02-21 00:48:48 20.7 20 18.3
003C4887 2019-02-21 00:16:29 20.7 20 20.3
003C4887 2019-02-20 23:44:09 20.7 20 20.4
003C4887 2019-02-20 23:11:51 20.7 20 21.7
003C4887 2019-02-20 22:39:29 20.7 20 22.7
003C4887 2019-02-20 22:07:10 20.7 21 22.7
003C4887 2019-02-20 21:34:50 20.7 21 22.7
003C4887 2019-02-20 21:02:29 20.7 21 22.7
003C4887 2019-02-20 20:30:15 20.7 21 22.8
003C4887 2019-02-20 19:57:54 20.7 21 22.8
003C4887 2019-02-20 19:25:33 20.7 21 23.6
003C4887 2019-02-20 18:53:13 20.7 21 23.6
003C4887 2019-02-20 18:20:54 20.7 22 23.5
003C4887 2019-02-20 17:48:35 20.7 22 23.5
003C4887 2019-02-20 17:16:17 20.8 22 23.5
003C4887 2019-02-20 16:44:00 20.8 23 23.5
003C4887 2019-02-20 15:39:26 20.7 23 23.5
003C4887 2019-02-20 15:07:10 20.7 23 23.5